GW3184 Weather Reports


time (UTC)temp
F
wind
direction
speed
knots
gust
knots
rain 1hr
in
rain 24hr
in
rain mn
in
humidity
%
barometer
mb
20260510072655 54 262 1.7 6.1 0.01 0.55 0.12 95 1009.4
20260510072557 54 197 0.0 6.1 0.01 0.55 0.12 95 1009.3
20260510072355 54 242 0.9 6.1 0.01 0.55 0.12 95 1009.4
20260510072255 54 171 0.9 6.1 0.01 0.55 0.12 95 1009.5
20260510072155 54 252 0.0 6.1 0.01 0.55 0.12 95 1009.4
20260510072056 54 230 1.7 6.1 0.01 0.55 0.12 95 1009.4
20260510071955 54 196 1.7 4.3 0.01 0.55 0.12 95 1009.4
20260510071854 54 185 2.6 4.3 0.01 0.55 0.12 95 1009.4
20260510071655 54 178 0.9 3.5 0.01 0.55 0.12 95 1009.4
20260510071555 54 244 1.7 3.5 0.01 0.55 0.12 95 1009.3
20260510071456 54 233 1.7 3.5 0.01 0.55 0.12 95 1009.4
20260510071355 54 214 2.6 3.5 0.01 0.55 0.12 95 1009.4
20260510071255 54 207 2.6 3.5 0.01 0.55 0.12 95 1009.4
20260510071156 54 229 0.9 2.6 0.01 0.55 0.12 95 1009.5
20260510071055 54 231 0.0 2.6 0.01 0.55 0.12 95 1009.4
20260510070855 54 215 0.0 1.7 0.01 0.55 0.12 95 1009.5
20260510070755 54 215 0.0 1.7 0.01 0.55 0.12 95 1009.5
20260510070655 54 215 0.0 1.7 0.01 0.55 0.12 95 1009.5
20260510070556 54 215 0.9 1.7 0.01 0.55 0.12 95 1009.4
20260510070455 54 215 0.0 0.9 0.01 0.55 0.12 95 1009.4
20260510070355 54 215 0.0 0.9 0.01 0.55 0.12 95 1009.6
20260510070255 54 215 0.9 0.9 0.01 0.55 0.12 95 1009.7
20260510070155 54 215 0.9 0.9 0.01 0.55 0.12 95 1009.7
20260510070055 54 215 0.0 0.9 0.01 0.55 0.12 95 1009.7
20260510065855 54 215 0.0 0.9 0.01 0.55 0.12 95 1009.9
20260510065755 54 215 0.9 1.7 0.00 0.54 0.11 95 1010.0
20260510065655 54 215 0.0 1.7 0.00 0.54 0.11 95 1010.0
20260510065556 54 215 0.0 1.7 0.00 0.54 0.11 95 1010.1
20260510065456 54 215 0.0 1.7 0.00 0.54 0.11 95 1010.3
20260510065355 54 215 0.9 1.7 0.00 0.54 0.11 95 1010.3
20260510065256 54 215 0.0 1.7 0.00 0.54 0.11 95 1010.5
20260510065155 54 215 0.0 1.7 0.00 0.54 0.11 95 1010.5
20260510065055 54 215 0.9 1.7 0.00 0.54 0.11 95 1010.5
20260510064955 54 215 0.0 1.7 0.00 0.54 0.11 95 1010.4
20260510064855 54 215 0.9 1.7 0.00 0.54 0.11 95 1010.4
20260510064755 54 215 0.9 1.7 0.00 0.54 0.11 95 1010.4
20260510064555 54 215 0.0 0.9 0.00 0.54 0.11 95 1010.3
20260510064355 54 215 0.0 0.9 0.00 0.54 0.11 95 1010.4
20260510064255 54 215 0.0 0.9 0.00 0.54 0.11 95 1010.3
20260510064156 54 215 0.0 0.9 0.00 0.54 0.11 95 1010.3
20260510063956 54 215 0.9 0.9 0.00 0.54 0.11 95 1010.1
20260510063856 54 215 0.0 0.9 0.00 0.54 0.11 95 1010.0
20260510063755 54 215 0.0 0.9 0.00 0.54 0.11 95 1010.1
20260510063555 53 215 0.0 0.9 0.00 0.54 0.11 95 1010.0
20260510063454 53 215 0.0 0.9 0.00 0.54 0.11 95 1009.8
20260510063255 53 215 0.9 0.9 0.00 0.54 0.11 95 1009.7
20260510063155 53 215 0.0 1.7 0.00 0.54 0.11 95 1009.7
20260510063055 53 215 0.0 1.7 0.00 0.54 0.11 95 1009.6
20260510062855 53 215 0.0 1.7 0.00 0.54 0.11 95 1009.5
20260510062755 53 215 0.0 1.7 0.00 0.54 0.11 95 1009.5
20260510062655 53 215 0.0 1.7 0.00 0.54 0.11 95 1009.5
20260510062555 53 215 0.0 1.7 0.00 0.54 0.11 95 1009.5
20260510062455 53 215 0.0 1.7 0.00 0.54 0.11 95 1009.4
20260510062356 53 215 0.9 1.7 0.00 0.54 0.11 95 1009.5
20260510062255 53 215 0.0 1.7 0.00 0.54 0.11 95 1009.5
20260510062155 53 215 0.9 1.7 0.00 0.54 0.11 95 1009.5
20260510062055 53 215 0.9 0.9 0.00 0.54 0.11 95 1009.5
20260510061854 53 215 0.0 0.9 0.00 0.54 0.11 95 1009.4
20260510061758 54 215 0.0 1.7 0.00 0.54 0.11 94 1009.5
20260510061555 54 215 0.0 1.7 0.00 0.54 0.11 94 1009.5
20260510061455 54 215 0.0 1.7 0.00 0.54 0.11 94 1009.5
20260510061355 54 215 0.0 1.7 0.01 0.54 0.11 94 1009.5
20260510061255 54 215 0.0 1.7 0.01 0.54 0.11 94 1009.5
20260510060855 54 215 0.0 1.7 0.01 0.54 0.11 94 1009.6
20260510060756 54 215 0.9 1.7 0.01 0.54 0.11 94 1009.7
20260510060656 54 215 0.9 1.7 0.02 0.54 0.11 94 1009.7
20260510060556 54 215 0.9 1.7 0.02 0.54 0.11 94 1009.8
20260510060455 54 215 0.9 1.7 0.03 0.54 0.11 94 1009.7
20260510060355 54 215 0.0 1.7 0.03 0.54 0.11 94 1009.7
20260510060255 54 215 0.9 1.7 0.04 0.54 0.11 94 1009.8
20260510060155 54 215 0.9 1.7 0.04 0.54 0.11 94 1009.8
20260510060055 54 215 0.0 1.7 0.04 0.54 0.11 94 1009.7
20260510055957 54 215 1.7 1.7 0.04 0.54 0.11 94 1009.7
20260510055855 54 215 0.0 1.7 0.04 0.54 0.11 94 1009.7
20260510055754 54 215 0.0 1.7 0.05 0.54 0.11 94 1009.7
20260510055656 54 215 0.0 1.7 0.06 0.54 0.11 94 1009.7
20260510055555 54 215 0.0 1.7 0.07 0.54 0.11 94 1009.7
20260510055255 54 205 0.9 3.5 0.09 0.54 0.11 94 1009.7
20260510054954 54 144 0.9 3.5 0.09 0.54 0.11 94 1009.8
20260510054755 54 196 0.0 4.3 0.09 0.54 0.11 95 1009.9
20260510054654 54 166 0.9 4.3 0.09 0.54 0.11 95 1010.1
20260510054555 54 217 2.6 7.0 0.09 0.54 0.11 95 1010.2
20260510054455 54 92 0.9 7.0 0.09 0.54 0.11 94 1010.3
20260510054354 54 342 0.0 7.0 0.09 0.54 0.11 94 1010.4
20260510054255 54 37 0.0 7.0 0.09 0.54 0.11 94 1010.3
20260510054155 54 37 1.7 7.0 0.10 0.54 0.11 94 1010.4
20260510054055 54 44 2.6 7.0 0.10 0.54 0.11 94 1010.7
20260510053956 54 40 3.5 7.0 0.10 0.54 0.11 94 1010.8
20260510053855 54 24 1.7 7.0 0.10 0.54 0.11 94 1010.9
20260510053754 54 5 2.6 7.0 0.10 0.54 0.11 94 1010.9
20260510053655 54 343 1.7 4.3 0.10 0.54 0.11 94 1010.9
20260510053554 54 325 0.9 4.3 0.10 0.54 0.11 94 1010.8
20260510053455 54 338 1.7 4.3 0.10 0.54 0.11 94 1010.8
20260510053355 54 304 1.7 4.3 0.11 0.54 0.11 94 1010.7
20260510053256 55 349 0.9 1.7 0.11 0.54 0.11 95 1010.6
20260510053155 54 311 1.7 1.7 0.11 0.54 0.11 94 1010.5
20260510053054 54 330 1.7 1.7 0.11 0.54 0.11 94 1010.2
20260510052755 54 92 0.9 0.9 0.11 0.54 0.11 94 1009.8
20260510052554 54 92 0.9 0.9 0.11 0.54 0.11 94 1009.8
20260510052455 54 92 0.9 0.9 0.11 0.54 0.11 94 1009.7
20260510052355 54 95 0.0 1.7 0.11 0.54 0.11 94 1009.8
20260510052254 54 95 0.0 1.7 0.11 0.54 0.11 94 1009.7
20260510052155 54 95 0.0 1.7 0.11 0.54 0.11 94 1009.8
20260510052054 54 95 0.0 1.7 0.11 0.54 0.11 94 1009.9
20260510051955 54 95 0.0 1.7 0.11 0.54 0.11 94 1009.7
20260510051854 54 95 0.9 1.7 0.11 0.54 0.11 94 1009.8
20260510051754 54 95 0.0 1.7 0.11 0.54 0.11 94 1009.8
20260510051653 54 95 0.0 1.7 0.11 0.54 0.11 94 1009.7
20260510051555 54 95 0.9 2.6 0.11 0.54 0.11 94 1009.9
20260510051455 54 94 1.7 2.6 0.11 0.54 0.11 94 1010.1
20260510051355 54 360 0.0 3.5 0.10 0.53 0.10 94 1010.2
20260510051255 54 355 0.0 3.5 0.10 0.53 0.10 94 1010.4
20260510051154 54 355 0.0 3.5 0.10 0.53 0.10 94 1010.4
20260510050955 54 355 0.9 3.5 0.10 0.53 0.10 94 1010.2
20260510050855 54 355 0.0 3.5 0.10 0.53 0.10 94 1010.1
20260510050755 54 339 0.9 3.5 0.09 0.52 0.09 94 1010.1
20260510050654 54 328 0.9 3.5 0.09 0.52 0.09 94 1010.1
20260510050555 54 355 2.6 3.5 0.08 0.51 0.08 94 1010.1
20260510050455 54 360 1.7 3.5 0.08 0.51 0.08 94 1010.2
20260510050355 54 5 2.6 2.6 0.08 0.51 0.08 94 1010.2
20260510050254 54 9 0.9 2.6 0.07 0.50 0.07 94 1010.3
20260510050155 54 355 2.6 2.6 0.07 0.50 0.07 94 1010.3
20260510050055 54 360 1.7 2.6 0.07 0.50 0.07 94 1010.4
20260510045958 54 341 1.7 2.6 0.07 0.50 0.07 94 1010.4
20260510045859 54 325 1.7 2.6 0.07 0.50 0.07 94 1010.4
20260510045758 54 346 0.9 1.7 0.06 0.49 0.06 94 1010.4
20260510045657 54 355 0.9 1.7 0.05 0.48 0.05 94 1010.1
20260510045458 54 342 1.7 1.7 0.03 0.46 0.03 94 1009.9
20260510045358 54 281 0.0 1.7 0.02 0.45 0.02 94 1010.0
20260510045257 54 281 0.0 1.7 0.02 0.45 0.02 94 1009.9
20260510045158 54 259 0.9 0.9 0.02 0.45 0.02 94 1009.8
20260510044959 54 255 0.0 0.0 0.02 0.45 0.02 94 1009.8
20260510044858 54 255 0.0 0.0 0.02 0.45 0.02 94 1009.9
20260510044758 54 255 0.0 0.0 0.02 0.45 0.02 94 1009.9
20260510044658 54 255 0.0 0.0 0.02 0.45 0.02 94 1009.8
20260510044557 54 255 0.0 0.0 0.02 0.45 0.02 94 1009.8
20260510044459 54 255 0.0 0.9 0.02 0.45 0.02 94 1009.7
20260510044359 54 255 0.0 0.9 0.02 0.45 0.02 94 1009.8
20260510044157 54 255 0.0 0.9 0.01 0.44 0.01 94 1009.8
20260510043957 54 255 0.0 1.7 0.01 0.44 0.01 94 1009.8
20260510043857 54 255 0.0 1.7 0.01 0.44 0.01 94 1009.9
20260510043758 54 255 0.0 1.7 0.01 0.44 0.01 94 1009.8
20260510043657 54 255 0.0 1.7 0.01 0.44 0.01 94 1009.8
20260510043557 54 255 0.0 1.7 0.01 0.44 0.01 94 1009.9
20260510043457 54 255 0.0 1.7 0.01 0.44 0.01 94 1009.8
20260510043358 54 255 0.0 1.7 0.01 0.44 0.01 94 1009.8
20260510043158 54 255 0.9 1.7 0.00 0.43 0.00 94 1009.8
20260510043058 54 255 0.9 1.7 0.00 0.43 0.00 94 1009.8
20260510042958 54 255 0.9 1.7 0.00 0.43 0.00 94 1009.7
20260510042858 54 255 0.9 1.7 0.00 0.43 0.00 94 1009.7
20260510042757 54 255 1.7 1.7 0.00 0.43 0.00 94 1009.6
20260510042658 54 255 0.0 1.7 0.00 0.43 0.00 94 1009.5
20260510042558 54 252 0.9 1.7 0.00 0.43 0.00 94 1009.5
20260510042357 54 268 0.9 1.7 0.00 0.43 0.00 94 1009.5
20260510042259 54 28 0.0 0.9 0.00 0.43 0.00 94 1009.5
20260510042159 54 28 0.0 0.9 0.00 0.43 0.00 94 1009.4
20260510042057 54 28 0.9 0.9 0.00 0.43 0.00 94 1009.4
20260510041957 54 112 0.0 0.9 0.00 0.43 0.00 94 1009.4
20260510041559 54 112 0.0 0.9 0.00 0.43 0.00 94 1009.4
20260510041458 54 112 0.9 0.9 0.00 0.43 0.00 94 1009.4
20260510041358 54 112 0.0 0.0 0.00 0.43 0.00 94 1009.4
20260510041258 54 112 0.0 0.0 0.00 0.43 0.00 94 1009.4
20260510041157 54 112 0.0 0.0 0.00 0.43 0.00 94 1009.4
20260510040957 54 112 0.0 0.0 0.01 0.43 0.00 94 1009.5
20260510040857 54 112 0.0 0.9 0.01 0.43 0.00 94 1009.4
20260510040757 54 112 0.0 1.7 0.01 0.43 0.00 94 1009.4
20260510040658 54 112 0.0 1.7 0.01 0.43 0.00 94 1009.4
20260510040558 54 112 0.0 1.7 0.01 0.43 0.00 94 1009.5
20260510040457 54 112 0.0 1.7 0.01 0.43 0.00 94 1009.5
20260510040358 54 112 0.0 1.7 0.02 0.43 0.00 94 1009.5
20260510040258 54 112 0.0 1.7 0.02 0.43 0.00 94 1009.5
20260510040158 54 112 0.0 1.7 0.02 0.43 0.00 94 1009.5
20260510040058 54 112 0.0 1.7 0.03 0.43 0.00 94 1009.6
20260510035957 54 112 0.9 1.7 0.03 0.44 0.43 94 1009.5
20260510035857 54 184 0.9 1.7 0.04 0.44 0.43 94 1009.6
20260510035757 54 192 0.0 0.9 0.04 0.44 0.43 94 1009.6
20260510035656 54 192 0.9 0.9 0.05 0.44 0.43 94 1009.6
20260510035556 54 192 0.9 0.9 0.06 0.44 0.43 94 1009.5
20260510035457 54 192 0.0 0.9 0.06 0.44 0.43 94 1009.5
20260510035357 54 192 0.0 0.9 0.07 0.44 0.43 94 1009.6
20260510035256 54 192 0.0 0.9 0.07 0.44 0.43 94 1009.5
20260510035157 53 192 0.0 0.9 0.08 0.44 0.43 94 1009.5
20260510035057 54 192 0.0 0.9 0.09 0.44 0.43 94 1009.5
20260510034857 53 192 0.0 0.0 0.11 0.44 0.43 93 1009.6
20260510034757 53 192 0.0 0.9 0.11 0.44 0.43 93 1009.5
20260510034657 54 192 0.0 0.9 0.12 0.44 0.43 93 1009.4
20260510034556 54 192 0.0 0.9 0.12 0.44 0.43 93 1009.5
20260510034457 54 192 0.0 0.9 0.12 0.44 0.43 93 1009.5
20260510034357 54 192 0.0 0.9 0.13 0.44 0.43 93 1009.5
20260510034256 54 192 0.0 0.9 0.13 0.44 0.43 93 1009.6
20260510034156 54 192 0.0 0.9 0.13 0.44 0.43 93 1009.5
20260510034056 54 192 0.0 0.9 0.14 0.44 0.43 93 1009.5
20260510033957 54 192 0.0 0.9 0.15 0.44 0.43 93 1009.6
20260510033858 54 192 0.0 0.9 0.16 0.44 0.43 93 1009.6
20260510033758 54 192 0.0 0.9 0.19 0.44 0.43 93 1009.6
20260510033657 54 192 0.0 0.9 0.19 0.44 0.43 93 1009.5
20260510033557 54 192 0.9 0.9 0.20 0.44 0.43 93 1009.6
20260510033457 54 192 0.0 0.9 0.21 0.44 0.43 93 1009.6
20260510033256 54 192 0.0 0.9 0.22 0.44 0.43 93 1009.5
20260510033156 54 192 0.0 1.7 0.23 0.44 0.43 93 1009.5
20260510033058 54 192 0.0 1.7 0.23 0.44 0.43 93 1009.5
20260510032857 54 192 0.0 1.7 0.25 0.44 0.43 92 1009.6
20260510032757 54 192 0.0 1.7 0.26 0.44 0.43 92 1009.5
20260510032657 54 192 0.0 1.7 0.28 0.44 0.43 92 1009.5
20260510032557 54 192 0.0 1.7 0.29 0.44 0.43 92 1009.5
20260510032457 54 192 0.0 2.6 0.29 0.44 0.43 92 1009.6
20260510032357 55 192 0.0 2.6 0.30 0.44 0.43 92 1009.6
20260510032157 55 105 0.0 2.6 0.32 0.44 0.43 93 1009.7
20260510032056 55 105 0.9 2.6 0.33 0.44 0.43 93 1009.6
20260510031957 55 105 0.9 2.6 0.33 0.44 0.43 93 1009.6
20260510031757 55 105 0.9 2.6 0.33 0.44 0.43 93 1009.7
20260510031657 55 109 1.7 2.6 0.33 0.44 0.43 92 1009.6
20260510031557 55 172 0.0 2.6 0.33 0.44 0.43 92 1009.7
20260510031357 55 205 0.0 2.6 0.33 0.44 0.43 92 1009.7
20260510031257 55 205 0.0 2.6 0.33 0.44 0.43 92 1009.7
20260510031157 55 205 0.0 2.6 0.33 0.44 0.43 92 1009.8
20260510031057 55 215 0.9 2.6 0.32 0.43 0.42 92 1009.7
20260510030956 55 182 1.7 2.6 0.32 0.43 0.42 92 1009.7
20260510030858 55 103 0.0 2.6 0.32 0.43 0.42 92 1009.8
20260510030757 55 103 0.9 2.6 0.32 0.43 0.42 92 1009.8
20260510030657 55 95 1.7 2.6 0.32 0.43 0.42 92 1009.8
20260510030457 55 65 0.9 2.6 0.31 0.42 0.41 92 1010.2
20260510030356 55 49 0.9 2.6 0.31 0.42 0.41 91 1010.3
20260510030256 55 41 0.9 2.6 0.31 0.42 0.41 91 1010.3
20260510030157 55 41 0.0 2.6 0.30 0.41 0.40 91 1010.4
20260510030057 55 34 2.6 2.6 0.30 0.41 0.40 91 1010.4
20260510025957 55 313 0.0 2.6 0.30 0.43 0.40 91 1010.5
20260510025857 55 5 0.9 2.6 0.29 0.42 0.39 91 1010.5
20260510025757 55 42 0.9 2.6 0.28 0.41 0.38 91 1010.6
20260510025657 55 31 1.7 2.6 0.28 0.41 0.38 91 1010.6
20260510025556 55 36 0.9 2.6 0.27 0.40 0.37 91 1010.7
20260510025457 55 36 0.9 2.6 0.27 0.40 0.37 91 1010.7
20260510025357 55 23 2.6 2.6 0.26 0.39 0.36 91 1010.7
20260510025257 55 162 0.9 1.7 0.26 0.39 0.36 91 1010.6
20260510025156 55 19 1.7 1.7 0.25 0.38 0.35 91 1010.8
20260510024957 55 155 0.9 1.7 0.24 0.37 0.34 90 1010.9
20260510024856 55 155 0.9 1.7 0.22 0.35 0.32 90 1010.7
20260510024758 55 142 0.9 1.7 0.22 0.35 0.32 90 1010.8
20260510024657 55 138 1.7 1.7 0.21 0.34 0.31 90 1010.6
20260510024557 55 83 0.0 1.7 0.21 0.34 0.31 90 1010.5
20260510024456 55 83 0.0 1.7 0.21 0.34 0.31 90 1010.4
20260510024356 55 37 0.9 1.7 0.20 0.33 0.30 90 1010.5
20260510024256 55 20 0.0 2.6 0.20 0.33 0.30 89 1010.5
20260510024057 55 23 0.9 7.8 0.19 0.32 0.29 89 1010.5
20260510023956 55 23 0.0 7.8 0.18 0.31 0.28 88 1010.5
20260510023856 56 23 0.0 7.8 0.17 0.30 0.27 88 1010.6
20260510023757 56 23 0.0 7.8 0.14 0.27 0.24 88 1010.5
20260510023656 56 23 0.0 7.8 0.14 0.27 0.24 88 1010.5
20260510023557 56 46 0.0 7.8 0.13 0.26 0.23 87 1010.5
20260510023456 56 339 0.9 7.8 0.12 0.25 0.22 86 1010.4
20260510023357 56 10 3.5 7.8 0.12 0.25 0.22 86 1010.3
20260510023256 56 355 1.7 9.6 0.11 0.24 0.21 86 1010.3
20260510023157 56 24 1.7 10.4 0.10 0.23 0.20 85 1010.3
20260510023057 57 27 4.3 10.4 0.09 0.22 0.19 85 1010.5
20260510022857 57 274 2.6 10.4 0.08 0.21 0.18 83 1010.6
20260510022757 57 337 0.9 10.4 0.07 0.20 0.17 82 1010.7
20260510022658 58 77 1.7 10.4 0.05 0.18 0.15 81 1010.5
20260510022557 58 69 1.7 10.4 0.04 0.17 0.14 80 1010.3
20260510022457 59 9 7.8 10.4 0.04 0.17 0.14 79 1010.2
20260510022357 59 12 9.6 10.4 0.03 0.16 0.13 78 1010.2
20260510022257 59 9 3.5 8.7 0.03 0.16 0.13 77 1010.2
20260510022156 59 338 1.7 8.7 0.01 0.14 0.11 76 1010.3
20260510022056 60 9 2.6 11.3 0.00 0.13 0.10 75 1010.3
20260510021956 60 86 7.0 11.3 0.00 0.13 0.10 74 1010.4
20260510021856 60 323 3.5 13.0 0.00 0.13 0.10 73 1010.2
20260510021757 60 257 1.7 13.0 0.00 0.13 0.10 71 1010.0
20260510021657 61 257 3.5 13.0 0.00 0.13 0.10 70 1009.8
20260510021556 61 111 2.6 13.0 0.00 0.13 0.10 69 1009.8
20260510021457 61 184 1.7 13.0 0.00 0.13 0.10 69 1009.8
20260510021355 61 267 1.7 13.0 0.00 0.13 0.10 69 1009.7
20260510021257 61 300 2.6 13.0 0.00 0.13 0.10 68 1009.7
20260510021157 61 346 1.7 13.0 0.00 0.13 0.10 68 1009.6
20260510021057 61 344 5.2 5.2 0.00 0.13 0.10 68 1009.7
20260510020957 61 310 1.7 3.5 0.00 0.13 0.10 68 1009.4
20260510020857 61 325 1.7 3.5 0.00 0.13 0.10 69 1009.1
20260510020757 61 344 2.6 2.6 0.00 0.13 0.10 69 1008.9
20260510020657 61 331 1.7 1.7 0.00 0.13 0.10 68 1008.8
20260510020556 61 221 0.9 0.9 0.00 0.13 0.10 69 1008.7
20260510020456 61 222 0.9 1.7 0.00 0.13 0.10 70 1008.6
20260510020356 61 222 0.0 1.7 0.00 0.13 0.10 69 1008.6
20260510020259 61 221 0.0 1.7 0.00 0.13 0.10 69 1008.4
20260510015957 61 221 0.0 2.6 0.00 0.13 0.10 69 1008.4
20260510015857 61 221 0.9 2.6 0.00 0.13 0.10 68 1008.3
20260510015559 61 233 0.9 2.6 0.00 0.13 0.10 68 1008.2
20260510015458 61 236 0.9 2.6 0.00 0.13 0.10 68 1008.2
20260510015357 61 196 0.9 2.6 0.00 0.13 0.10 68 1008.2
20260510015257 61 248 0.9 2.6 0.00 0.13 0.10 68 1008.2
20260510015159 61 198 0.9 2.6 0.00 0.13 0.10 68 1008.1
20260510015057 61 200 0.9 2.6 0.00 0.13 0.10 67 1008.1
20260510014858 61 208 1.7 3.5 0.00 0.13 0.10 68 1008.1
20260510014758 61 230 2.6 3.5 0.00 0.13 0.10 68 1008.0
20260510014658 61 261 0.9 6.1 0.00 0.13 0.10 67 1008.0
20260510014558 61 188 0.9 6.1 0.00 0.13 0.10 66 1008.0
20260510014457 61 173 0.9 6.1 0.00 0.13 0.10 67 1008.0
20260510014359 61 228 0.9 6.1 0.00 0.13 0.10 67 1008.0
20260510014258 61 233 0.9 6.1 0.00 0.13 0.10 66 1007.8
20260510014158 61 187 2.6 6.1 0.00 0.13 0.10 66 1007.8
20260510014058 61 233 0.9 6.1 0.00 0.13 0.10 67 1007.8
20260510013957 61 205 0.9 6.1 0.00 0.13 0.10 67 1007.8
20260510013858 61 266 1.7 6.1 0.00 0.13 0.10 67 1007.8
20260510013757 61 197 0.9 3.5 0.00 0.13 0.10 67 1007.8
20260510013557 61 210 1.7 3.5 0.00 0.13 0.10 67 1007.8
20260510013356 61 213 0.9 3.5 0.00 0.13 0.10 68 1007.8
20260510013257 61 209 0.9 3.5 0.00 0.13 0.10 67 1007.8
20260510013158 60 220 1.7 3.5 0.00 0.13 0.10 68 1007.8
20260510013057 60 234 0.0 3.5 0.00 0.13 0.10 68 1007.7
20260510012958 60 248 0.9 3.5 0.00 0.13 0.10 68 1007.7
20260510012858 60 241 0.9 3.5 0.00 0.13 0.10 69 1007.7
20260510012658 60 178 1.7 3.5 0.00 0.13 0.10 69 1007.6
20260510012459 60 244 0.9 1.7 0.00 0.13 0.10 69 1007.6
20260510012357 60 244 0.0 1.7 0.00 0.13 0.10 69 1007.6
20260510012257 60 244 0.0 1.7 0.00 0.13 0.10 69 1007.6
20260510012158 60 244 0.9 1.7 0.00 0.13 0.10 69 1007.6
20260510011957 60 244 0.9 1.7 0.00 0.13 0.10 68 1007.6
20260510011857 60 244 0.0 1.7 0.00 0.13 0.10 68 1007.6
20260510011758 60 244 0.9 1.7 0.00 0.13 0.10 68 1007.5
20260510011658 60 244 0.9 1.7 0.00 0.13 0.10 67 1007.6
20260510011558 60 244 0.0 2.6 0.00 0.13 0.10 68 1007.6
20260510011457 60 244 0.9 3.5 0.00 0.13 0.10 67 1007.6
20260510011358 60 244 0.9 3.5 0.00 0.13 0.10 67 1007.6
20260510011259 60 244 0.9 3.5 0.00 0.13 0.10 67 1007.5
20260510011158 61 244 0.0 3.5 0.00 0.13 0.10 67 1007.5
20260510011057 61 244 0.0 3.5 0.00 0.13 0.10 66 1007.5
20260510010858 61 248 0.9 3.5 0.00 0.13 0.10 66 1007.5
20260510010656 61 228 2.6 4.3 0.00 0.13 0.10 65 1007.5
20260510010459 61 260 1.7 4.3 0.00 0.13 0.10 66 1007.5
20260510010357 61 233 0.9 4.3 0.00 0.13 0.10 66 1007.5
20260510010258 61 230 0.9 4.3 0.00 0.13 0.10 65 1007.5
20260510010157 61 238 0.9 4.3 0.00 0.13 0.10 66 1007.4
20260510010057 61 297 1.7 4.3 0.00 0.13 0.10 65 1007.4
20260510005957 61 227 0.9 4.3 0.00 0.13 0.10 66 1007.4
20260510005857 61 214 0.9 4.3 0.00 0.13 0.10 66 1007.4
20260510005755 61 200 2.6 5.2 0.00 0.13 0.10 66 1007.4
20260510005656 61 225 0.9 1.7 0.00 0.13 0.10 66 1007.4
20260510005557 61 225 0.0 1.7 0.00 0.13 0.10 65 1007.4
20260510005458 61 213 0.9 3.5 0.00 0.13 0.10 65 1007.5
20260510005357 61 208 0.0 3.5 0.00 0.13 0.10 65 1007.4
20260510005257 61 206 0.0 3.5 0.00 0.13 0.10 65 1007.4
20260510005157 61 205 0.9 3.5 0.00 0.13 0.10 65 1007.4
20260510004956 62 227 0.9 3.5 0.00 0.13 0.10 64 1007.5
20260510004858 62 227 0.9 4.3 0.00 0.13 0.10 64 1007.4
20260510004758 62 227 0.9 4.3 0.00 0.13 0.10 64 1007.4
20260510004657 62 201 0.0 4.3 0.00 0.13 0.10 64 1007.5
20260510004557 62 182 2.6 4.3 0.00 0.13 0.10 63 1007.4
20260510004456 62 207 0.9 4.3 0.00 0.13 0.10 64 1007.4
20260510004256 62 250 0.9 4.3 0.00 0.13 0.10 63 1007.5
20260510004158 62 248 1.7 4.3 0.00 0.13 0.10 63 1007.4
20260510003957 62 204 0.9 3.5 0.00 0.13 0.10 63 1007.5
20260510003756 62 257 0.9 3.5 0.00 0.13 0.10 63 1007.4
20260510003657 62 256 0.9 5.2 0.00 0.13 0.10 63 1007.4
20260510003457 63 261 1.7 5.2 0.00 0.13 0.10 62 1007.3
20260510003357 63 208 0.9 5.2 0.00 0.13 0.10 62 1007.4
20260510003257 63 235 0.9 5.2 0.00 0.13 0.10 62 1007.4
20260510003156 63 259 0.0 8.7 0.00 0.13 0.10 62 1007.3
20260510003056 63 259 1.7 8.7 0.00 0.13 0.10 61 1007.3
20260510002957 63 202 0.9 8.7 0.00 0.13 0.10 61 1007.3
20260510002856 63 236 1.7 8.7 0.00 0.13 0.10 61 1007.3
20260510002756 63 245 0.9 8.7 0.00 0.13 0.10 61 1007.4
20260510002656 63 230 1.7 8.7 0.00 0.13 0.10 61 1007.3
20260510002557 63 206 0.9 8.7 0.00 0.13 0.10 61 1007.3
20260510002457 63 246 2.6 8.7 0.00 0.13 0.10 61 1007.3
20260510002356 63 260 2.6 8.7 0.00 0.13 0.10 61 1007.3
20260510002256 63 189 3.5 7.0 0.00 0.13 0.10 61 1007.3
20260510001956 63 239 1.7 7.0 0.00 0.13 0.10 62 1007.3
20260510001857 63 269 1.7 7.0 0.00 0.13 0.10 61 1007.3
20260510001657 63 246 0.9 7.0 0.00 0.13 0.10 61 1007.4
20260510001557 63 222 2.6 7.0 0.00 0.13 0.10 61 1007.3
20260510001456 63 240 1.7 4.3 0.00 0.13 0.10 61 1007.3
20260510001257 63 246 0.0 5.2 0.00 0.13 0.10 61 1007.3
20260510001156 64 240 1.7 7.8 0.00 0.13 0.10 61 1007.3
20260510001057 64 226 1.7 7.8 0.00 0.13 0.10 60 1007.3
20260510000956 64 243 1.7 7.8 0.00 0.13 0.10 60 1007.2
20260510000856 64 259 0.9 7.8 0.00 0.13 0.10 59 1007.3
20260510000756 64 184 1.7 7.8 0.00 0.13 0.10 60 1007.2
20260510000556 64 166 4.3 7.8 0.00 0.13 0.10 59 1007.1
20260510000457 64 197 1.7 7.8 0.00 0.13 0.10 60 1007.1
20260510000356 64 270 2.6 7.8 0.00 0.13 0.10 59 1007.1
20260510000256 64 223 2.6 6.1 0.00 0.13 0.10 60 1007.1
20260510000156 64 205 2.6 5.2 0.00 0.13 0.10 60 1007.1
20260510000056 64 192 0.9 5.2 0.00 0.13 0.10 60 1007.1
20260509235956 64 196 3.5 5.2 0.00 0.13 0.10 59 1007.1
20260509235757 64 235 1.7 5.2 0.00 0.13 0.10 59 1007.0
20260509235657 64 224 0.9 5.2 0.00 0.13 0.10 59 1007.0
20260509235557 64 219 1.7 5.2 0.00 0.13 0.10 59 1007.0
20260509235456 64 232 0.9 5.2 0.00 0.13 0.10 59 1007.0
20260509235357 64 182 1.7 5.2 0.00 0.13 0.10 59 1006.9
20260509235257 64 198 1.7 5.2 0.00 0.13 0.10 59 1007.0
20260509235057 64 259 2.6 6.1 0.00 0.13 0.10 59 1006.9
20260509234856 64 196 0.0 6.1 0.00 0.13 0.10 59 1006.9
20260509234756 64 285 0.9 6.1 0.00 0.13 0.10 59 1007.0
20260509234657 65 180 2.6 6.1 0.00 0.13 0.10 59 1006.9
20260509234557 64 206 2.6 6.1 0.00 0.13 0.10 59 1006.9
20260509234456 64 242 1.7 6.1 0.00 0.13 0.10 59 1006.9
20260509234257 65 259 0.9 6.1 0.00 0.13 0.10 59 1006.9
20260509234156 65 222 2.6 6.1 0.00 0.13 0.10 58 1006.9
20260509234056 65 190 1.7 6.1 0.00 0.13 0.10 58 1006.9
20260509233957 65 284 3.5 6.1 0.00 0.13 0.10 58 1006.9
20260509233856 65 241 0.9 6.1 0.00 0.13 0.10 58 1006.9
20260509233757 65 197 2.6 6.1 0.00 0.13 0.10 58 1006.9
20260509233657 65 161 5.2 6.1 0.00 0.13 0.10 58 1006.8
20260509233556 65 252 1.7 6.1 0.00 0.13 0.10 58 1007.0
20260509233457 65 185 1.7 5.2 0.00 0.13 0.10 59 1006.9
20260509233357 65 157 1.7 5.2 0.00 0.13 0.10 58 1006.9
20260509233156 65 235 0.9 5.2 0.00 0.13 0.10 58 1006.8
20260509233056 65 248 1.7 4.3 0.00 0.13 0.10 59 1006.9
20260509232957 65 252 1.7 4.3 0.00 0.13 0.10 58 1006.9
20260509232856 65 252 1.7 6.1 0.00 0.13 0.10 58 1007.0
20260509232756 65 252 1.7 7.8 0.00 0.13 0.10 58 1006.9
20260509232657 65 184 1.7 8.7 0.00 0.13 0.10 57 1006.9
20260509232556 65 194 1.7 8.7 0.00 0.13 0.10 58 1006.9
20260509232456 65 179 2.6 8.7 0.00 0.13 0.10 57 1006.9
20260509232156 65 179 2.6 8.7 0.00 0.13 0.10 57 1006.9
20260509232056 65 180 4.3 8.7 0.00 0.13 0.10 57 1006.8
20260509231958 65 241 4.3 9.6 0.00 0.13 0.10 57 1006.9
20260509231857 65 255 1.7 9.6 0.00 0.13 0.10 57 1006.9
20260509231757 65 219 0.9 9.6 0.00 0.13 0.10 58 1006.9
20260509231556 66 235 0.9 9.6 0.00 0.13 0.10 57 1006.9
20260509231457 66 152 0.9 9.6 0.00 0.13 0.10 56 1006.9
20260509231357 66 233 1.7 9.6 0.00 0.13 0.10 57 1006.9
20260509231257 66 278 0.9 9.6 0.00 0.13 0.10 57 1006.8
20260509231056 66 290 1.7 7.8 0.00 0.13 0.10 56 1006.7
20260509230956 66 215 2.6 7.8 0.00 0.13 0.10 56 1006.9
20260509230856 66 213 3.5 7.8 0.00 0.13 0.10 56 1006.8
20260509230756 66 275 1.7 7.8 0.00 0.13 0.10 56 1006.7
20260509230557 66 225 3.5 7.8 0.00 0.13 0.10 56 1006.7
20260509230457 66 258 1.7 7.8 0.00 0.13 0.10 56 1006.8
20260509230357 66 244 1.7 7.8 0.00 0.13 0.10 57 1006.7
20260509230257 66 246 1.7 7.8 0.00 0.13 0.10 56 1006.8
20260509230056 66 211 1.7 7.8 0.00 0.13 0.10 57 1006.7
20260509225959 66 269 2.6 7.0 0.00 0.13 0.10 58 1006.7
20260509225857 66 219 1.7 7.0 0.00 0.13 0.10 57 1006.6
20260509225800 66 314 1.7 7.0 0.00 0.13 0.10 57 1006.6
20260509225658 66 202 3.5 7.0 0.00 0.13 0.10 57 1006.6
20260509225558 66 230 0.9 7.0 0.00 0.13 0.10 56 1006.7
20260509225458 66 243 2.6 9.6 0.00 0.13 0.10 56 1006.7
20260509225358 66 182 4.3 9.6 0.00 0.13 0.10 56 1006.7
20260509225258 66 226 6.1 9.6 0.00 0.13 0.10 56 1006.7
20260509225158 66 275 0.9 12.2 0.00 0.13 0.10 55 1006.6
20260509224959 66 278 1.7 12.2 0.00 0.13 0.10 56 1006.7
20260509224858 66 226 2.6 12.2 0.00 0.13 0.10 56 1006.6
20260509224758 66 217 2.6 12.2 0.00 0.13 0.10 56 1006.6
20260509224658 66 212 2.6 12.2 0.00 0.13 0.10 55 1006.6
20260509224558 66 239 4.3 12.2 0.00 0.13 0.10 56 1006.6
20260509224458 66 234 3.5 12.2 0.00 0.13 0.10 55 1006.6
20260509224358 66 146 7.0 13.0 0.00 0.13 0.10 56 1006.7
20260509224258 66 216 3.5 10.4 0.00 0.13 0.10 56 1006.6
20260509224157 67 219 2.6 10.4 0.00 0.13 0.10 56 1006.7
20260509224059 67 275 1.7 10.4 0.00 0.13 0.10 56 1006.7
20260509223858 67 225 7.0 10.4 0.00 0.13 0.10 57 1006.7
20260509223757 67 153 4.3 7.8 0.00 0.13 0.10 56 1006.7
20260509223657 67 248 1.7 7.8 0.00 0.13 0.10 57 1006.7
20260509223457 67 190 1.7 7.8 0.00 0.13 0.10 57 1006.7
20260509223359 67 267 2.6 7.8 0.00 0.13 0.10 56 1006.7
20260509223158 67 213 3.5 7.8 0.00 0.13 0.10 56 1006.7
20260509223057 67 227 1.7 7.8 0.00 0.13 0.10 55 1006.6
20260509222958 67 167 7.0 7.0 0.00 0.13 0.10 56 1006.6
20260509222858 67 263 2.6 4.3 0.00 0.13 0.10 57 1006.6
20260509222758 67 182 0.9 4.3 0.00 0.13 0.10 58 1006.6
20260509222657 67 294 1.7 7.0 0.00 0.13 0.10 58 1006.6
20260509222558 67 261 1.7 7.0 0.00 0.13 0.10 58 1006.6
20260509222457 67 229 0.9 7.0 0.00 0.13 0.10 57 1006.6
20260509222358 67 223 0.9 7.0 0.00 0.13 0.10 58 1006.6
20260509222258 67 230 2.6 7.0 0.00 0.13 0.10 57 1006.6
20260509222157 66 209 0.9 7.0 0.00 0.13 0.10 59 1006.5
20260509222058 66 182 1.7 8.7 0.00 0.13 0.10 58 1006.6
20260509221958 66 168 0.9 8.7 0.00 0.13 0.10 58 1006.6
20260509221758 66 171 6.1 8.7 0.00 0.13 0.10 59 1006.6
20260509221557 67 196 2.6 8.7 0.00 0.13 0.10 59 1006.6
20260509221457 67 262 0.9 8.7 0.00 0.13 0.10 57 1006.6
20260509221357 67 239 2.6 8.7 0.00 0.13 0.10 57 1006.7
20260509221257 67 219 2.6 8.7 0.00 0.13 0.10 57 1006.8
20260509221158 67 270 1.7 7.8 0.00 0.13 0.10 57 1006.7
20260509220857 67 225 1.7 7.8 0.00 0.13 0.10 57 1006.8
20260509220757 67 195 5.2 7.8 0.00 0.13 0.10 57 1006.9
20260509220558 67 169 5.2 6.1 0.00 0.13 0.10 56 1006.8
20260509220457 67 258 2.6 8.7 0.00 0.13 0.10 55 1006.9
20260509220258 68 323 3.5 8.7 0.00 0.13 0.10 56 1006.8
20260509220157 67 215 4.3 8.7 0.00 0.13 0.10 56 1006.8
20260509220058 67 240 1.7 8.7 0.00 0.13 0.10 56 1006.8
20260509215959 67 223 1.7 8.7 0.00 0.13 0.10 56 1006.9
20260509215857 67 265 0.9 8.7 0.00 0.13 0.10 55 1006.9
20260509215756 67 227 4.3 8.7 0.00 0.13 0.10 56 1007.0
20260509215656 67 186 0.9 8.7 0.00 0.13 0.10 55 1006.9
20260509215557 67 191 5.2 9.6 0.00 0.13 0.10 55 1007.0
20260509215457 67 254 1.7 9.6 0.00 0.13 0.10 56 1007.1
20260509215356 67 185 5.2 9.6 0.00 0.13 0.10 56 1007.0
20260509215157 67 268 3.5 9.6 0.00 0.13 0.10 55 1007.0
20260509215056 67 230 1.7 9.6 0.00 0.13 0.10 55 1007.1
20260509214956 67 246 1.7 9.6 0.00 0.13 0.10 56 1007.0
20260509214857 67 230 1.7 9.6 0.00 0.13 0.10 55 1007.1
20260509214557 67 213 2.6 7.8 0.00 0.13 0.10 55 1007.0
20260509214456 68 188 3.5 7.8 0.00 0.13 0.10 55 1007.0
20260509214356 68 246 2.6 8.7 0.00 0.13 0.10 55 1007.0
20260509214256 68 203 7.0 8.7 0.00 0.13 0.10 55 1006.9
20260509214156 68 169 4.3 8.7 0.00 0.13 0.10 57 1007.0
20260509214056 68 290 1.7 8.7 0.00 0.13 0.10 57 1006.9
20260509213957 68 246 1.7 8.7 0.00 0.13 0.10 55 1006.8
20260509213856 68 196 1.7 8.7 0.00 0.13 0.10 56 1006.8
20260509213756 68 263 2.6 8.7 0.00 0.13 0.10 57 1006.8
20260509213557 68 210 3.5 8.7 0.00 0.13 0.10 56 1006.7
20260509213456 68 254 0.9 7.8 0.00 0.13 0.10 56 1006.9
20260509213356 68 247 1.7 7.8 0.00 0.13 0.10 60 1006.8
20260509213256 67 209 1.7 7.8 0.00 0.13 0.10 59 1006.9
20260509213156 67 227 1.7 7.8 0.00 0.13 0.10 58 1006.9
20260509213056 67 253 0.9 7.8 0.00 0.13 0.10 58 1006.9
20260509212956 67 203 1.7 9.6 0.00 0.13 0.10 58 1006.9
20260509212856 67 192 3.5 9.6 0.00 0.13 0.10 58 1006.9
20260509212756 66 231 5.2 9.6 0.00 0.13 0.10 58 1007.0
20260509212656 66 185 4.3 9.6 0.00 0.13 0.10 60 1006.9
20260509212556 66 144 7.0 9.6 0.00 0.13 0.10 58 1007.0
20260509212457 67 164 3.5 9.6 0.00 0.13 0.10 57 1007.0
20260509212357 67 307 2.6 9.6 0.00 0.13 0.10 58 1007.0
20260509212257 67 144 5.2 9.6 0.00 0.13 0.10 58 1007.1
20260509212156 67 223 5.2 9.6 0.00 0.13 0.10 58 1007.1
20260509211957 67 155 1.7 7.8 0.00 0.13 0.10 59 1007.1
20260509211857 67 252 1.7 7.8 0.00 0.13 0.10 58 1007.1
20260509211756 67 184 4.3 7.8 0.00 0.13 0.10 58 1007.1
20260509211657 67 217 6.1 7.8 0.00 0.13 0.10 60 1007.1
20260509211557 67 207 3.5 7.8 0.00 0.13 0.10 59 1007.2
20260509211457 67 245 1.7 7.8 0.00 0.13 0.10 58 1007.2
20260509211357 67 210 1.7 7.8 0.00 0.13 0.10 58 1007.2
20260509211257 68 222 2.6 7.8 0.00 0.13 0.10 58 1007.1
20260509211157 68 222 1.7 7.8 0.00 0.13 0.10 59 1007.2
20260509210956 67 217 1.7 7.8 0.00 0.13 0.10 59 1007.2
20260509210857 67 229 3.5 7.8 0.00 0.13 0.10 58 1007.1
20260509210657 67 251 2.6 7.8 0.00 0.13 0.10 57 1007.2
20260509210556 68 203 1.7 7.0 0.00 0.13 0.10 58 1007.1
20260509210456 68 204 2.6 7.0 0.00 0.13 0.10 59 1007.1
20260509210355 68 219 0.9 7.0 0.00 0.13 0.10 57 1007.0
20260509210257 68 190 2.6 7.0 0.00 0.13 0.10 56 1007.0
20260509210156 67 179 2.6 8.7 0.00 0.13 0.10 58 1007.1
20260509210057 67 194 1.7 8.7 0.00 0.13 0.10 57 1007.1
20260509205957 67 263 3.5 8.7 0.00 0.13 0.10 56 1007.1
20260509205857 67 250 3.5 8.7 0.00 0.13 0.10 57 1007.2
20260509205658 67 214 3.5 8.7 0.00 0.13 0.10 56 1007.2
20260509205556 67 225 0.9 8.7 0.00 0.13 0.10 56 1007.2
20260509205457 68 217 2.6 10.4 0.00 0.13 0.10 56 1007.3
20260509205357 68 202 7.0 10.4 0.00 0.13 0.10 58 1007.3
20260509205257 68 195 3.5 9.6 0.00 0.13 0.10 56 1007.2
20260509205158 68 267 1.7 9.6 0.00 0.13 0.10 58 1007.3
20260509205058 68 196 1.7 9.6 0.00 0.13 0.10 57 1007.3
20260509204957 68 262 1.7 13.0 0.00 0.13 0.10 56 1007.4
20260509204856 68 214 6.1 13.0 0.00 0.13 0.10 57 1007.3
20260509204757 68 221 7.0 13.0 0.00 0.13 0.10 57 1007.5
20260509204657 68 202 3.5 13.0 0.00 0.13 0.10 56 1007.3
20260509204556 68 181 3.5 13.0 0.00 0.13 0.10 58 1007.4
20260509204456 68 211 2.6 13.0 0.00 0.13 0.10 58 1007.4
20260509204356 68 176 1.7 13.0 0.00 0.13 0.10 57 1007.4
20260509204255 68 196 1.7 13.0 0.00 0.13 0.10 57 1007.5
20260509204157 68 130 6.1 10.4 0.00 0.13 0.10 58 1007.5
20260509204056 68 221 1.7 10.4 0.00 0.13 0.10 57 1007.5
20260509203957 68 191 6.1 10.4 0.00 0.13 0.10 57 1007.5
20260509203856 68 229 1.7 10.4 0.00 0.13 0.10 57 1007.5
20260509203756 68 167 10.4 10.4 0.00 0.13 0.10 57 1007.6
20260509203656 68 175 9.6 9.6 0.00 0.13 0.10 59 1007.6
20260509203555 68 197 2.6 6.1 0.00 0.13 0.10 58 1007.6
20260509203457 68 260 0.9 5.2 0.00 0.13 0.10 63 1007.5
20260509203356 68 124 4.3 7.0 0.00 0.13 0.10 58 1007.5
20260509203256 68 246 3.5 7.0 0.00 0.13 0.10 61 1007.5
20260509203156 67 169 1.7 7.0 0.00 0.13 0.10 63 1007.5
20260509203056 67 273 1.7 7.0 0.00 0.13 0.10 60 1007.4
20260509202956 68 194 3.5 7.0 0.00 0.13 0.10 59 1007.5
20260509202900 68 188 2.6 7.0 0.00 0.13 0.10 62 1007.4
20260509202757 68 225 2.6 7.0 0.00 0.13 0.10 59 1007.5
20260509202658 68 271 2.6 7.0 0.00 0.13 0.10 58 1007.4
20260509202557 68 174 7.8 7.8 0.00 0.13 0.10 60 1007.5
20260509202457 69 281 1.7 6.1 0.00 0.13 0.10 61 1007.5
20260509202356 69 261 1.7 7.0 0.00 0.13 0.10 61 1007.4
20260509202256 69 262 2.6 7.0 0.00 0.13 0.10 61 1007.5
20260509202157 69 227 0.9 7.0 0.00 0.13 0.10 66 1007.5
20260509202056 68 218 1.7 7.0 0.00 0.13 0.10 61 1007.5
20260509201857 68 240 1.7 7.8 0.00 0.13 0.10 66 1007.6
20260509201757 68 255 0.9 7.8 0.00 0.13 0.10 64 1007.6
20260509201656 68 278 0.9 7.8 0.00 0.13 0.10 62 1007.6
20260509201556 68 273 1.7 7.8 0.00 0.13 0.10 62 1007.7
20260509201356 67 203 1.7 7.8 0.00 0.13 0.10 60 1007.6
20260509201257 67 216 4.3 7.8 0.00 0.13 0.10 60 1007.6
20260509201057 67 259 0.9 7.0 0.00 0.13 0.10 68 1007.7
20260509200956 66 167 0.9 7.0 0.00 0.13 0.10 67 1007.7
20260509200856 66 225 2.6 8.7 0.00 0.13 0.10 64 1007.7
20260509200757 65 238 7.0 8.7 0.00 0.13 0.10 65 1007.7
20260509200557 65 262 1.7 8.7 0.00 0.13 0.10 65 1007.6
20260509200457 65 160 0.9 8.7 0.00 0.13 0.10 64 1007.8
20260509200357 65 239 2.6 8.7 0.00 0.13 0.10 62 1007.8
20260509200257 66 185 0.9 8.7 0.00 0.13 0.10 64 1007.8
20260509200157 66 273 1.7 8.7 0.00 0.13 0.10 62 1007.8
20260509200057 66 190 7.8 10.4 0.00 0.13 0.10 63 1007.9
20260509195956 66 225 1.7 7.8 0.00 0.13 0.10 62 1007.8
20260509195857 67 166 3.5 9.6 0.00 0.13 0.10 63 1007.8
20260509195756 66 211 2.6 9.6 0.00 0.13 0.10 63 1007.8
20260509195657 66 259 1.7 9.6 0.00 0.13 0.10 63 1007.8
20260509195556 66 194 1.7 9.6 0.00 0.13 0.10 65 1007.9
20260509195456 66 249 1.7 9.6 0.00 0.13 0.10 66 1007.8
20260509195356 66 254 0.9 9.6 0.00 0.13 0.10 66 1007.9
20260509195258 65 241 3.5 9.6 0.00 0.13 0.10 64 1008.0
20260509195157 65 208 7.0 9.6 0.00 0.13 0.10 63 1008.0
20260509195056 65 63 3.5 9.6 0.00 0.13 0.10 63 1008.0
20260509194956 65 250 2.6 8.7 0.00 0.13 0.10 64 1008.0
20260509194857 65 173 2.6 8.7 0.00 0.13 0.10 64 1008.1
20260509194655 66 265 2.6 8.7 0.00 0.13 0.10 68 1008.1
20260509194557 66 250 1.7 8.7 0.00 0.13 0.10 66 1008.0
20260509194457 65 205 1.7 8.7 0.00 0.13 0.10 66 1007.9
20260509194357 65 161 3.5 8.7 0.00 0.13 0.10 64 1008.0
20260509194256 65 222 4.3 8.7 0.00 0.13 0.10 64 1008.0
20260509194156 65 315 0.9 7.8 0.00 0.13 0.10 64 1008.0
20260509194057 66 275 0.9 8.7 0.00 0.13 0.10 64 1008.0
20260509193957 66 261 2.6 8.7 0.00 0.13 0.10 64 1008.0
20260509193857 66 170 7.0 9.6 0.00 0.13 0.10 66 1008.2
20260509193756 66 182 4.3 9.6 0.00 0.13 0.10 65 1008.1
20260509193656 66 261 1.7 9.6 0.00 0.13 0.10 65 1008.1
20260509193558 66 182 0.9 9.6 0.00 0.13 0.10 63 1008.1
20260509193457 66 257 2.6 9.6 0.00 0.13 0.10 63 1008.1
20260509193356 66 229 2.6 9.6 0.00 0.13 0.10 62 1008.2
20260509193257 66 185 7.0 9.6 0.00 0.13 0.10 63 1008.2
20260509193156 66 225 1.7 9.6 0.00 0.13 0.10 62 1008.2
20260509193056 67 205 10.4 10.4 0.00 0.13 0.10 62 1008.2
20260509192957 67 243 2.6 7.8 0.00 0.13 0.10 63 1008.1
20260509192857 67 207 1.7 7.8 0.00 0.13 0.10 64 1008.2
20260509192757 67 197 2.6 7.8 0.00 0.13 0.10 66 1008.1
20260509192657 67 231 4.3 9.6 0.00 0.13 0.10 64 1008.0
20260509192556 67 246 1.7 9.6 0.00 0.13 0.10 67 1008.2
20260509192456 67 219 1.7 9.6 0.00 0.13 0.10 64 1008.1
20260509192256 67 217 3.5 9.6 0.00 0.13 0.10 64 1008.3
20260509192157 67 238 2.6 9.6 0.00 0.13 0.10 64 1008.1
20260509191856 66 215 2.6 11.3 0.00 0.13 0.10 63 1008.3
20260509191656 66 184 0.9 11.3 0.00 0.13 0.10 68 1008.3
20260509191556 65 278 2.6 11.3 0.00 0.13 0.10 67 1008.2
20260509191456 65 213 5.2 11.3 0.00 0.13 0.10 68 1008.3
20260509191358 65 200 4.3 11.3 0.00 0.13 0.10 67 1008.3
20260509191256 65 198 3.5 11.3 0.00 0.13 0.10 69 1008.3
20260509191156 65 261 6.1 11.3 0.00 0.13 0.10 65 1008.4
20260509191057 65 187 3.5 11.3 0.00 0.13 0.10 65 1008.3
20260509190958 65 355 3.5 11.3 0.00 0.13 0.10 68 1008.3
20260509190856 65 163 6.1 11.3 0.00 0.13 0.10 66 1008.4
20260509190756 65 302 7.0 11.3 0.00 0.13 0.10 66 1008.4
20260509190656 65 296 3.5 11.3 0.00 0.13 0.10 66 1008.4
20260509190456 65 237 4.3 11.3 0.00 0.13 0.10 68 1008.4
20260509190357 65 259 2.6 12.2 0.00 0.13 0.10 70 1008.5
20260509190156 64 217 2.6 12.2 0.00 0.13 0.10 67 1008.5
20260509190056 64 294 2.6 12.2 0.00 0.13 0.10 65 1008.4
20260509185957 65 290 1.7 12.2 0.00 0.13 0.10 66 1008.5
20260509185856 64 253 4.3 9.6 0.00 0.13 0.10 67 1008.5
20260509185758 65 279 5.2 9.6 0.00 0.13 0.10 66 1008.5
20260509185657 65 224 2.6 9.6 0.00 0.13 0.10 64 1008.5
20260509185456 66 176 2.6 7.8 0.00 0.13 0.10 68 1008.7
20260509185356 66 192 1.7 7.8 0.00 0.13 0.10 67 1008.5
20260509185256 65 217 1.7 9.6 0.00 0.13 0.10 68 1008.6
20260509185156 65 239 3.5 9.6 0.00 0.13 0.10 72 1008.6
20260509185056 64 286 0.9 9.6 0.00 0.13 0.10 68 1008.6
20260509184956 64 235 0.9 12.2 0.00 0.13 0.10 67 1008.6
20260509184855 65 246 0.9 12.2 0.00 0.13 0.10 67 1008.6
20260509184756 64 279 6.1 12.2 0.00 0.13 0.10 66 1008.6
20260509184656 64 215 2.6 12.2 0.00 0.13 0.10 68 1008.6
20260509184556 64 246 2.6 12.2 0.00 0.13 0.10 67 1008.8
20260509184456 64 216 4.3 12.2 0.00 0.13 0.10 68 1008.6
20260509184356 64 278 2.6 12.2 0.00 0.13 0.10 69 1008.7
20260509184158 64 213 5.2 12.2 0.00 0.13 0.10 66 1008.6
20260509184057 64 239 3.5 8.7 0.00 0.13 0.10 67 1008.6
20260509183957 64 227 3.5 7.8 0.00 0.13 0.10 70 1008.8
20260509183856 64 265 1.7 8.7 0.00 0.13 0.10 69 1008.5
20260509183558 64 277 3.5 8.7 0.00 0.13 0.10 67 1008.6
20260509183456 64 214 3.5 8.7 0.00 0.13 0.10 69 1008.6
20260509183258 64 173 6.1 8.7 0.00 0.13 0.10 72 1008.5
20260509183157 63 202 1.7 8.7 0.00 0.13 0.10 70 1008.6
20260509183057 63 183 6.1 8.7 0.00 0.13 0.10 70 1008.6
20260509182956 63 203 5.2 7.0 0.00 0.13 0.10 72 1008.7
20260509182856 63 277 1.7 7.8 0.00 0.13 0.10 72 1008.6
20260509182758 63 209 2.6 7.8 0.00 0.13 0.10 75 1008.6
20260509182657 62 277 0.9 7.8 0.00 0.13 0.10 74 1008.7
20260509182557 62 240 0.9 7.8 0.00 0.13 0.10 72 1008.7
20260509182456 62 253 0.9 7.8 0.00 0.13 0.10 72 1008.8
20260509182355 62 223 1.7 7.8 0.00 0.13 0.10 71 1008.8
20260509182256 62 214 3.5 7.8 0.00 0.13 0.10 70 1008.8
20260509182157 62 292 2.6 7.8 0.00 0.13 0.10 70 1008.7
20260509182057 62 298 0.9 7.8 0.00 0.13 0.10 70 1008.7
20260509181956 63 214 3.5 7.0 0.00 0.13 0.10 72 1008.9
20260509181856 63 213 0.9 7.0 0.00 0.13 0.10 72 1008.8
20260509181757 63 217 0.9 7.0 0.00 0.13 0.10 71 1008.8
20260509181656 63 242 1.7 7.0 0.00 0.13 0.10 72 1008.9
20260509181556 63 201 0.9 7.0 0.00 0.13 0.10 72 1008.8
20260509181357 63 248 2.6 7.8 0.00 0.13 0.10 71 1008.8
20260509181256 63 202 0.9 7.8 0.00 0.13 0.10 70 1008.8
20260509181156 64 167 5.2 7.8 0.00 0.13 0.10 70 1008.8
20260509181056 63 282 2.6 11.3 0.00 0.13 0.10 72 1008.9
20260509180857 63 236 1.7 11.3 0.00 0.13 0.10 70 1008.9
20260509180756 63 232 4.3 11.3 0.00 0.13 0.10 71 1008.8
20260509180656 64 205 3.5 11.3 0.00 0.13 0.10 70 1008.8
20260509180357 64 195 1.7 11.3 0.00 0.13 0.10 70 1008.9
20260509180257 64 202 7.0 11.3 0.00 0.13 0.10 71 1008.9
20260509180056 64 228 1.7 7.8 0.00 0.13 0.10 74 1008.9
20260509175957 63 175 1.7 7.8 0.00 0.13 0.10 73 1008.8
20260509175856 63 219 1.7 7.8 0.00 0.13 0.10 73 1008.9
20260509175756 63 218 3.5 7.8 0.00 0.13 0.10 74 1008.8
20260509175657 63 241 0.9 7.8 0.00 0.13 0.10 74 1008.9
20260509175557 63 173 1.7 7.8 0.00 0.13 0.10 73 1008.9
20260509175457 62 182 3.5 7.8 0.00 0.13 0.10 74 1008.9
20260509175357 62 207 2.6 7.8 0.00 0.13 0.10 73 1008.8
20260509175256 62 282 5.2 7.8 0.00 0.13 0.10 74 1008.9
20260509175157 61 231 1.7 7.0 0.00 0.13 0.10 72 1008.8
20260509175057 62 241 2.6 7.0 0.00 0.13 0.10 73 1008.9
20260509174856 62 229 3.5 7.0 0.00 0.13 0.10 75 1008.8
20260509174656 62 185 2.6 5.2 0.00 0.13 0.10 74 1008.9
20260509174557 62 137 3.5 5.2 0.00 0.13 0.10 75 1008.9
20260509174457 62 258 0.9 5.2 0.00 0.13 0.10 75 1008.9
20260509174358 62 241 2.6 5.2 0.00 0.13 0.10 76 1008.9
20260509174256 61 246 4.3 5.2 0.00 0.13 0.10 73 1008.9
20260509174156 62 235 1.7 5.2 0.00 0.13 0.10 75 1008.9
20260509174056 61 316 1.7 5.2 0.00 0.13 0.10 75 1008.9
20260509173956 61 81 0.9 5.2 0.00 0.13 0.10 76 1008.8
20260509173857 61 232 0.9 5.2 0.00 0.13 0.10 73 1008.9
20260509173756 61 272 1.7 5.2 0.00 0.13 0.10 75 1008.9
20260509173656 61 177 1.7 5.2 0.00 0.13 0.10 75 1008.9
20260509173556 61 241 1.7 7.8 0.00 0.13 0.10 75 1008.9
20260509173456 61 170 0.9 7.8 0.00 0.13 0.10 78 1008.9
20260509173356 61 254 1.7 7.8 0.00 0.13 0.10 78 1008.9
20260509173157 61 246 1.7 7.8 0.00 0.13 0.10 74 1008.9
20260509172856 60 199 3.5 7.8 0.00 0.13 0.10 78 1008.9
20260509172756 60 254 1.7 7.8 0.00 0.13 0.10 76 1009.0
20260509172656 61 236 2.6 5.2 0.00 0.13 0.10 78 1008.9
20260509172558 61 271 1.7 5.2 0.00 0.13 0.10 77 1008.9
20260509172457 61 239 0.9 5.2 0.00 0.13 0.10 77 1008.9
20260509172357 61 239 1.7 6.1 0.00 0.13 0.10 78 1008.9
20260509172156 61 169 1.7 6.1 0.00 0.13 0.10 77 1008.9
20260509172056 61 244 0.9 9.6 0.00 0.13 0.10 75 1008.9
20260509171958 61 231 0.9 9.6 0.00 0.13 0.10 76 1008.9
20260509171901 61 179 5.2 9.6 0.00 0.13 0.10 75 1008.8
20260509171756 61 259 3.5 9.6 0.00 0.13 0.10 76 1008.8
20260509171656 61 238 0.9 9.6 0.00 0.13 0.10 76 1008.8
20260509171256 60 204 3.5 9.6 0.00 0.13 0.10 77 1008.7
20260509171157 60 273 1.7 9.6 0.00 0.13 0.10 77 1008.8
20260509171056 60 186 5.2 7.0 0.00 0.13 0.10 78 1008.8
20260509170958 60 238 0.9 7.0 0.00 0.13 0.10 77 1008.8
20260509170856 59 219 2.6 7.0 0.00 0.13 0.10 77 1008.8
20260509170757 59 266 1.7 7.0 0.00 0.13 0.10 77 1008.7
20260509170600 59 254 2.6 7.0 0.01 0.13 0.10 79 1008.8
20260509170456 59 210 3.5 7.0 0.01 0.13 0.10 78 1008.7
20260509170356 59 251 0.9 7.0 0.01 0.13 0.10 77 1008.8
20260509170256 59 234 1.7 7.0 0.01 0.13 0.10 77 1008.8
20260509170156 59 215 4.3 7.0 0.01 0.13 0.10 79 1008.8
20260509170056 59 232 1.7 7.0 0.01 0.13 0.10 77 1008.8
20260509165958 60 312 1.7 7.0 0.01 0.13 0.10 78 1008.8
20260509165856 60 190 2.6 7.0 0.01 0.13 0.10 77 1008.8
20260509165756 60 225 3.5 7.8 0.01 0.13 0.10 79 1008.7
20260509165656 60 178 2.6 7.0 0.01 0.13 0.10 79 1008.7
20260509165556 60 198 0.9 7.0 0.01 0.13 0.10 78 1008.7
20260509165456 60 198 2.6 7.0 0.01 0.13 0.10 76 1008.8
20260509165356 60 230 1.7 7.8 0.01 0.13 0.10 77 1008.8
20260509165156 60 178 5.2 7.8 0.01 0.13 0.10 79 1008.7
20260509165056 60 173 1.7 7.8 0.01 0.13 0.10 77 1008.7
20260509164956 60 241 2.6 7.8 0.01 0.13 0.10 77 1008.8
20260509164857 60 200 5.2 7.8 0.01 0.13 0.10 77 1008.7
20260509164757 60 238 4.3 7.8 0.01 0.13 0.10 78 1008.7
20260509164656 60 207 1.7 7.8 0.01 0.13 0.10 78 1008.6
20260509164457 60 215 2.6 7.8 0.01 0.13 0.10 80 1008.6
20260509164356 60 182 3.5 7.8 0.01 0.13 0.10 81 1008.6
20260509164256 60 221 0.9 7.8 0.01 0.13 0.10 79 1008.6
20260509164157 60 149 0.0 7.8 0.01 0.13 0.10 81 1008.6
20260509164056 60 213 1.7 7.8 0.01 0.13 0.10 82 1008.6
20260509163857 60 201 1.7 7.8 0.01 0.13 0.10 81 1008.6
20260509163756 60 221 1.7 7.8 0.01 0.13 0.10 80 1008.6
20260509163656 60 279 3.5 8.7 0.01 0.13 0.10 78 1008.7
20260509163557 60 151 2.6 6.1 0.01 0.13 0.10 80 1008.6
20260509163457 60 187 2.6 6.1 0.01 0.13 0.10 82 1008.7
20260509163358 60 242 1.7 6.1 0.01 0.13 0.10 84 1008.6
20260509163256 60 205 1.7 6.1 0.01 0.13 0.10 81 1008.6
20260509163057 60 271 2.6 6.1 0.01 0.13 0.10 84 1008.7
20260509162957 60 229 0.9 6.1 0.01 0.13 0.10 82 1008.6
20260509162856 60 232 3.5 6.1 0.01 0.13 0.10 83 1008.5
20260509162756 60 200 2.6 5.2 0.01 0.13 0.10 85 1008.6
20260509162656 59 221 2.6 5.2 0.01 0.13 0.10 84 1008.5
20260509162556 59 112 1.7 4.3 0.01 0.13 0.10 84 1008.6
20260509162456 59 217 1.7 4.3 0.01 0.13 0.10 82 1008.5
20260509162358 59 257 2.6 4.3 0.01 0.13 0.10 83 1008.6
20260509162256 59 247 1.7 4.3 0.01 0.13 0.10 83 1008.6
20260509162156 59 236 2.6 4.3 0.01 0.13 0.10 83 1008.6
20260509162055 59 194 4.3 4.3 0.01 0.13 0.10 84 1008.7
20260509161957 59 234 1.7 5.2 0.01 0.13 0.10 84 1008.6
20260509161857 60 265 0.0 5.2 0.01 0.13 0.10 85 1008.6
20260509161757 60 171 3.5 5.2 0.01 0.13 0.10 86 1008.6
20260509161657 59 208 0.9 5.2 0.01 0.13 0.10 85 1008.6
20260509161456 59 33 0.0 5.2 0.01 0.13 0.10 85 1008.6
20260509161358 59 181 2.6 5.2 0.01 0.13 0.10 85 1008.6
20260509161256 59 176 1.7 6.1 0.01 0.13 0.10 86 1008.6
20260509161156 59 326 0.9 6.1 0.01 0.13 0.10 87 1008.6
20260509160957 59 186 2.6 6.1 0.01 0.13 0.10 87 1008.8
20260509160857 59 182 0.9 6.1 0.01 0.13 0.10 85 1008.7
20260509160657 59 106 1.7 5.2 0.00 0.12 0.09 91 1008.6
20260509160556 58 220 2.6 4.3 0.00 0.12 0.09 88 1008.6
20260509160457 58 178 1.7 5.2 0.00 0.12 0.09 88 1008.7
20260509160356 58 205 0.0 5.2 0.00 0.12 0.09 89 1008.6
20260509160056 57 167 2.6 5.2 0.01 0.12 0.09 91 1008.6
20260509155956 57 193 1.7 5.2 0.01 0.12 0.09 89 1008.6
20260509155755 57 238 0.9 5.2 0.01 0.12 0.09 89 1008.6
20260509155655 57 215 1.7 5.2 0.01 0.12 0.09 88 1008.7
20260509155556 57 184 5.2 5.2 0.01 0.12 0.09 89 1008.7
20260509155354 56 236 1.7 4.3 0.01 0.12 0.09 90 1008.7
20260509155255 56 155 0.9 5.2 0.01 0.12 0.09 90 1008.8
20260509155156 56 157 4.3 5.2 0.01 0.12 0.09 90 1008.6
20260509155056 56 199 0.9 5.2 0.01 0.12 0.09 91 1008.7
20260509154955 56 246 2.6 5.2 0.01 0.12 0.09 91 1008.6
20260509154855 55 175 2.6 5.2 0.01 0.12 0.09 90 1008.7
20260509154755 55 217 1.7 5.2 0.01 0.12 0.09 90 1008.6
20260509154655 55 197 0.0 5.2 0.01 0.12 0.09 91 1008.5
20260509154556 55 237 0.0 5.2 0.01 0.12 0.09 90 1008.7
20260509154456 55 175 1.7 6.1 0.01 0.12 0.09 91 1008.6
20260509154355 55 206 0.9 5.2 0.01 0.12 0.09 90 1008.7
20260509154155 55 185 0.0 5.2 0.01 0.12 0.09 90 1008.7
20260509154056 55 184 0.9 5.2 0.01 0.12 0.09 90 1008.6
20260509153855 55 253 0.9 6.1 0.01 0.12 0.09 89 1008.7
20260509153555 55 232 2.6 6.1 0.01 0.12 0.09 89 1008.6
20260509153456 55 195 0.9 6.1 0.01 0.12 0.09 90 1008.6
20260509153356 55 215 0.9 6.1 0.01 0.12 0.09 90 1008.6
20260509153155 55 209 0.9 6.1 0.01 0.12 0.09 90 1008.6
20260509153054 55 201 4.3 7.0 0.01 0.12 0.09 91 1008.6
20260509152956 55 177 2.6 4.3 0.01 0.12 0.09 90 1008.6
20260509152856 55 297 2.6 4.3 0.01 0.12 0.09 91 1008.6
20260509152756 55 196 0.9 6.1 0.01 0.12 0.09 91 1008.6
20260509152655 55 176 0.9 6.1 0.01 0.12 0.09 91 1008.6
20260509152555 55 242 0.9 6.1 0.01 0.12 0.09 91 1008.6
20260509152456 55 246 1.7 6.1 0.01 0.12 0.09 92 1008.6
20260509152356 55 273 0.0 6.1 0.01 0.12 0.09 92 1008.5
20260509152156 55 167 0.9 6.1 0.01 0.12 0.09 91 1008.6
20260509152055 55 213 0.9 6.1 0.01 0.12 0.09 91 1008.6
20260509151856 55 183 0.9 4.3 0.01 0.12 0.09 92 1008.6
20260509151755 55 182 1.7 4.3 0.01 0.12 0.09 92 1008.7
20260509151656 55 182 1.7 4.3 0.01 0.12 0.09 93 1008.7
20260509151457 54 198 0.0 3.5 0.01 0.12 0.09 92 1008.7
20260509151355 54 198 0.9 3.5 0.01 0.12 0.09 92 1008.7
20260509151255 54 220 0.0 3.5 0.01 0.12 0.09 92 1008.7
20260509151155 54 220 0.9 3.5 0.01 0.12 0.09 92 1008.7
20260509151055 54 220 0.0 3.5 0.01 0.12 0.09 92 1008.6
20260509150955 54 212 1.7 3.5 0.01 0.12 0.09 92 1008.6
20260509150856 54 174 0.9 2.6 0.01 0.12 0.09 92 1008.6
20260509150755 54 205 0.9 1.7 0.01 0.12 0.09 92 1008.6
20260509150655 54 205 0.9 1.7 0.01 0.12 0.09 92 1008.6
20260509150555 54 205 0.0 2.6 0.01 0.12 0.09 92 1008.6
20260509150456 54 205 0.9 2.6 0.01 0.12 0.09 92 1008.6
20260509150356 54 202 0.9 2.6 0.01 0.12 0.09 92 1008.5
20260509150254 53 215 0.0 2.6 0.01 0.12 0.09 92 1008.5
20260509150155 53 215 0.9 2.6 0.01 0.12 0.09 91 1008.5
20260509150055 53 219 0.9 2.6 0.00 0.11 0.08 91 1008.6
20260509145857 54 270 1.7 2.6 0.00 0.11 0.08 91 1008.6
20260509145756 54 213 0.9 2.6 0.00 0.11 0.08 91 1008.6
20260509145656 54 193 0.0 1.7 0.00 0.11 0.08 91 1008.6
20260509145556 54 193 0.0 1.7 0.00 0.11 0.08 91 1008.6
20260509145456 54 193 0.0 1.7 0.00 0.11 0.08 91 1008.6
20260509145356 54 193 0.9 1.7 0.00 0.11 0.08 91 1008.6
20260509145256 54 197 0.9 1.7 0.00 0.11 0.08 92 1008.6
20260509145157 54 191 0.0 1.7 0.00 0.11 0.08 92 1008.5
20260509145057 54 207 1.7 1.7 0.00 0.11 0.08 92 1008.6
20260509144957 54 209 0.0 2.6 0.00 0.11 0.08 92 1008.6
20260509144756 54 209 0.9 2.6 0.00 0.11 0.08 91 1008.7
20260509144656 54 238 0.9 2.6 0.00 0.11 0.08 92 1008.6
20260509144557 54 260 0.9 4.3 0.00 0.11 0.08 91 1008.6
20260509144356 54 253 1.7 4.3 0.00 0.11 0.08 91 1008.6
20260509144257 54 209 0.9 4.3 0.00 0.11 0.08 91 1008.7
20260509144057 54 232 1.7 4.3 0.00 0.11 0.08 91 1008.6
20260509143956 54 192 1.7 4.3 0.00 0.11 0.08 92 1008.6
20260509143857 54 232 0.0 4.3 0.00 0.11 0.08 91 1008.7
20260509143657 54 190 0.9 4.3 0.00 0.11 0.08 92 1008.6
20260509143457 54 213 0.9 6.1 0.00 0.11 0.08 91 1008.7
20260509143256 54 213 0.9 6.1 0.00 0.11 0.08 91 1008.7
20260509143156 54 221 0.9 6.1 0.00 0.11 0.08 91 1008.7
20260509142956 54 214 0.9 6.1 0.00 0.11 0.08 91 1008.6
20260509142857 54 211 2.6 6.1 0.00 0.11 0.08 91 1008.6
20260509142756 54 192 3.5 6.1 0.00 0.11 0.08 91 1008.7
20260509142656 54 260 3.5 6.1 0.00 0.11 0.08 92 1008.6
20260509142556 54 215 2.6 5.2 0.00 0.11 0.08 92 1008.6
20260509142357 54 198 2.6 4.3 0.00 0.11 0.08 92 1008.6
20260509142256 54 231 0.9 4.3 0.00 0.11 0.08 92 1008.6
20260509142156 54 198 0.0 4.3 0.00 0.11 0.08 92 1008.5
20260509142056 54 202 0.9 4.3 0.00 0.11 0.08 92 1008.5
20260509141957 53 207 1.7 6.1 0.00 0.11 0.08 92 1008.5
20260509141756 53 180 2.6 6.1 0.00 0.11 0.08 92 1008.5
20260509141556 53 169 1.7 6.1 0.00 0.11 0.08 92 1008.6
20260509141456 53 149 0.9 6.1 0.00 0.11 0.08 92 1008.6
20260509141356 53 208 0.9 6.1 0.00 0.11 0.08 92 1008.6
20260509141256 53 217 0.9 6.1 0.00 0.11 0.08 92 1008.6
20260509141157 53 196 1.7 6.1 0.00 0.11 0.08 92 1008.6
20260509141056 53 180 3.5 3.5 0.00 0.11 0.08 92 1008.7
20260509140956 53 204 0.9 2.6 0.00 0.11 0.08 92 1008.7
20260509140656 53 204 0.9 2.6 0.00 0.11 0.08 92 1008.8
20260509140557 53 241 0.0 3.5 0.00 0.11 0.08 92 1008.8
20260509140457 53 256 0.9 3.5 0.00 0.11 0.08 92 1008.8
20260509140357 53 232 0.9 3.5 0.00 0.11 0.08 92 1008.6
20260509140255 53 188 1.7 3.5 0.00 0.11 0.08 92 1008.7
20260509140156 53 188 1.7 3.5 0.00 0.11 0.08 92 1008.7
20260509140056 53 237 0.0 3.5 0.01 0.11 0.08 92 1008.8
20260509135956 53 260 1.7 3.5 0.01 0.11 0.08 92 1008.6
20260509135855 53 237 0.0 3.5 0.01 0.11 0.08 92 1008.7
20260509135756 53 229 3.5 3.5 0.01 0.11 0.08 92 1008.8
20260509135555 53 178 0.9 4.3 0.01 0.11 0.08 92 1008.7
20260509135455 53 168 0.0 4.3 0.01 0.11 0.08 92 1008.7
20260509135354 53 200 1.7 4.3 0.01 0.11 0.08 92 1008.6
20260509134956 53 210 0.9 5.2 0.01 0.11 0.08 92 1008.7
20260509134656 53 221 1.7 5.2 0.01 0.11 0.08 92 1008.7
20260509134556 53 202 0.9 5.2 0.01 0.11 0.08 92 1008.7
20260509134456 53 239 1.7 5.2 0.01 0.11 0.08 92 1008.7
20260509134355 53 178 1.7 5.2 0.01 0.11 0.08 92 1008.7
20260509134255 53 215 1.7 5.2 0.01 0.11 0.08 92 1008.7
20260509134155 53 196 3.5 5.2 0.01 0.11 0.08 92 1008.8
20260509133955 53 205 3.5 4.3 0.02 0.11 0.08 92 1008.7
20260509133855 53 211 0.0 4.3 0.02 0.11 0.08 92 1008.7
20260509133756 53 214 2.6 4.3 0.02 0.11 0.08 92 1008.8
20260509133555 53 213 2.6 3.5 0.02 0.11 0.08 93 1008.8
20260509133455 53 269 1.7 3.5 0.02 0.11 0.08 93 1008.7
20260509133355 53 254 1.7 4.3 0.02 0.11 0.08 93 1008.8
20260509133255 53 192 0.9 3.5 0.02 0.11 0.08 93 1008.7
20260509133156 53 241 2.6 3.5 0.02 0.11 0.08 93 1008.6
20260509133055 53 124 0.9 3.5 0.02 0.11 0.08 93 1008.7
20260509132856 52 202 1.7 7.0 0.02 0.11 0.08 93 1008.8
20260509132755 52 247 1.7 7.0 0.02 0.11 0.08 93 1008.7
20260509132555 52 210 3.5 7.0 0.02 0.11 0.08 93 1008.7
20260509132455 52 238 1.7 7.0 0.02 0.11 0.08 93 1008.7
20260509132356 52 207 1.7 7.0 0.02 0.11 0.08 93 1008.8
20260509132255 52 216 2.6 7.0 0.02 0.11 0.08 93 1008.8
20260509131855 52 196 0.0 5.2 0.02 0.11 0.08 93 1008.8
20260509131755 52 231 3.5 5.2 0.02 0.11 0.08 93 1008.8
20260509131556 52 205 0.9 5.2 0.02 0.11 0.08 93 1008.8
20260509131456 52 290 0.0 5.2 0.02 0.11 0.08 93 1008.8
20260509131354 52 184 3.5 3.5 0.03 0.11 0.08 93 1008.8
20260509131256 52 208 1.7 3.5 0.03 0.11 0.08 93 1008.9
20260509131055 52 169 3.5 6.1 0.03 0.11 0.08 93 1008.8
20260509130855 52 290 0.9 6.1 0.03 0.11 0.08 93 1008.8
20260509130755 52 190 0.9 6.1 0.03 0.11 0.08 93 1008.8
20260509130554 52 234 1.7 6.1 0.03 0.11 0.08 93 1008.8
20260509130455 52 224 1.7 6.1 0.03 0.11 0.08 93 1008.8
20260509130356 52 179 0.9 6.1 0.03 0.11 0.08 93 1008.8
20260509130256 52 241 4.3 6.1 0.03 0.11 0.08 93 1008.8
20260509130154 52 191 1.7 5.2 0.03 0.11 0.08 93 1008.7
20260509130055 52 238 1.7 5.2 0.03 0.10 0.07 93 1008.7
20260509125958 52 211 2.6 5.2 0.03 0.10 0.07 93 1008.7
20260509125856 52 194 2.6 5.2 0.03 0.10 0.07 93 1008.8
20260509125757 52 184 4.3 5.2 0.03 0.10 0.07 93 1008.7
20260509125656 52 202 1.7 5.2 0.03 0.10 0.07 93 1008.8
20260509125557 52 123 0.9 3.5 0.03 0.10 0.07 93 1008.8
20260509125457 52 178 0.9 4.3 0.03 0.10 0.07 93 1008.9
20260509125356 52 186 1.7 4.3 0.03 0.10 0.07 93 1008.9
20260509125256 52 200 1.7 4.3 0.03 0.10 0.07 93 1008.9
20260509125156 52 182 0.9 4.3 0.03 0.10 0.07 93 1008.9
20260509125057 52 196 1.7 4.3 0.03 0.10 0.07 93 1009.0
20260509124956 52 196 0.9 4.3 0.03 0.10 0.07 93 1009.0
20260509124857 52 185 1.7 4.3 0.03 0.10 0.07 93 1009.0
20260509124756 52 132 2.6 4.3 0.03 0.10 0.07 93 1009.1
20260509124556 52 185 2.6 4.3 0.03 0.10 0.07 93 1009.0
20260509124456 52 197 0.9 4.3 0.03 0.10 0.07 93 1009.0
20260509124356 52 210 0.9 4.3 0.03 0.10 0.07 93 1009.1
20260509124256 52 208 1.7 4.3 0.03 0.10 0.07 93 1009.1
20260509124156 52 284 0.9 4.3 0.03 0.10 0.07 93 1009.1
20260509123957 52 213 0.9 4.3 0.02 0.09 0.06 93 1009.2
20260509123856 52 203 0.0 4.3 0.03 0.09 0.06 93 1009.1
20260509123757 52 221 0.9 4.3 0.03 0.09 0.06 93 1009.1
20260509123656 52 211 2.6 2.6 0.03 0.09 0.06 93 1009.1
20260509123557 52 232 0.0 2.6 0.03 0.09 0.06 93 1009.1
20260509123456 52 213 0.9 2.6 0.03 0.09 0.06 93 1009.1
20260509123257 52 221 0.0 2.6 0.03 0.09 0.06 93 1009.1
20260509123156 52 209 0.9 2.6 0.03 0.09 0.06 93 1009.1
20260509123057 51 205 0.9 3.5 0.03 0.09 0.06 93 1009.1
20260509122958 51 208 0.9 3.5 0.03 0.09 0.06 93 1009.0
20260509122856 52 153 2.6 3.5 0.03 0.09 0.06 93 1009.0
20260509122757 52 184 0.9 3.5 0.03 0.09 0.06 93 1009.1
20260509122656 51 198 0.0 3.5 0.03 0.09 0.06 93 1009.1
20260509122558 51 236 0.9 5.2 0.03 0.09 0.06 93 1009.1
20260509122456 51 195 1.7 5.2 0.03 0.09 0.06 93 1009.2
20260509122356 51 198 0.0 5.2 0.03 0.09 0.06 93 1009.0
20260509122257 51 194 0.9 5.2 0.03 0.09 0.06 93 1009.1
20260509122158 51 220 2.6 5.2 0.03 0.09 0.06 93 1009.1
20260509122057 51 227 1.7 5.2 0.03 0.09 0.06 93 1009.1
20260509121956 51 220 1.7 5.2 0.03 0.09 0.06 93 1009.0
20260509121856 51 242 2.6 5.2 0.03 0.09 0.06 93 1009.0
20260509121556 51 228 0.0 4.3 0.03 0.09 0.06 93 1009.0
20260509121456 51 221 1.7 4.3 0.03 0.09 0.06 93 1009.1
20260509121357 51 204 0.9 4.3 0.02 0.08 0.05 93 1009.1
20260509121257 51 197 2.6 4.3 0.02 0.08 0.05 93 1009.1
20260509121156 51 194 0.0 4.3 0.02 0.08 0.05 93 1009.1
20260509121056 51 182 0.9 4.3 0.02 0.08 0.05 93 1009.1
20260509120956 51 174 2.6 4.3 0.03 0.08 0.05 93 1009.1
20260509120857 51 252 0.9 5.2 0.03 0.08 0.05 93 1009.1
20260509120756 51 184 0.9 5.2 0.03 0.08 0.05 93 1009.1
20260509120656 51 181 0.9 5.2 0.03 0.08 0.05 92 1009.2
20260509120557 51 178 0.9 5.2 0.03 0.08 0.05 93 1009.2
20260509120456 51 180 0.0 5.2 0.03 0.08 0.05 92 1009.2
20260509120356 51 179 0.9 5.2 0.03 0.08 0.05 93 1009.2
20260509120255 51 211 0.0 5.2 0.03 0.08 0.05 92 1009.2
20260509120158 51 225 0.9 5.2 0.03 0.08 0.05 92 1009.1
20260509115955 51 229 1.7 4.3 0.03 0.07 0.04 92 1009.2
20260509115855 51 273 0.9 4.3 0.03 0.07 0.04 92 1009.2
20260509115755 51 221 1.7 3.5 0.03 0.07 0.04 92 1009.1
20260509115656 51 270 0.9 3.5 0.03 0.07 0.04 93 1009.1
20260509115555 51 215 1.7 3.5 0.03 0.07 0.04 93 1009.1
20260509115455 51 223 0.0 1.7 0.03 0.07 0.04 93 1009.1
20260509115356 51 223 0.0 1.7 0.03 0.07 0.04 92 1009.0
20260509115255 51 186 0.0 1.7 0.03 0.07 0.04 93 1009.1
20260509115155 51 186 0.9 1.7 0.03 0.07 0.04 93 1009.1
20260509115056 51 166 0.9 1.7 0.03 0.07 0.04 93 1009.1
20260509114955 51 208 0.0 1.7 0.03 0.07 0.04 92 1009.1
20260509114854 51 208 0.9 1.7 0.03 0.07 0.04 92 1009.1
20260509114755 51 207 0.9 1.7 0.03 0.07 0.04 92 1009.0
20260509114655 51 226 0.9 1.7 0.03 0.07 0.04 92 1009.1
20260509114455 51 184 0.9 1.7 0.03 0.07 0.04 93 1009.0
20260509114255 51 229 0.9 1.7 0.03 0.07 0.04 92 1009.0
20260509114155 51 236 0.9 1.7 0.03 0.07 0.04 92 1009.0
20260509113855 51 215 0.9 2.6 0.02 0.06 0.03 92 1009.0
20260509113755 51 220 0.9 2.6 0.02 0.06 0.03 92 1008.9
20260509113656 51 202 0.0 2.6 0.02 0.06 0.03 92 1009.0
20260509113555 51 223 0.0 2.6 0.02 0.06 0.03 92 1009.0
20260509113355 51 223 1.7 2.6 0.02 0.06 0.03 92 1009.0
20260509113256 51 248 0.9 2.6 0.02 0.06 0.03 92 1008.9
20260509113156 51 206 0.9 2.6 0.02 0.06 0.03 92 1009.0
20260509113055 51 234 1.7 2.6 0.02 0.06 0.03 92 1008.9
20260509112955 51 234 1.7 2.6 0.02 0.06 0.03 92 1008.9
20260509112855 51 232 1.7 2.6 0.02 0.06 0.03 92 1008.9
20260509112755 51 188 0.9 2.6 0.02 0.06 0.03 92 1008.9
20260509112655 51 186 1.7 2.6 0.02 0.06 0.03 92 1008.9
20260509112456 51 169 1.7 3.5 0.02 0.06 0.03 92 1009.0
20260509112354 51 208 0.9 3.5 0.02 0.06 0.03 91 1008.9
20260509112255 51 228 0.9 3.5 0.02 0.06 0.03 91 1008.9
20260509112155 51 202 0.9 3.5 0.02 0.06 0.03 91 1008.9
20260509112056 51 267 1.7 3.5 0.02 0.06 0.03 91 1008.8
20260509111855 51 232 0.9 3.5 0.02 0.06 0.03 91 1008.9
20260509111755 51 234 0.9 7.8 0.02 0.06 0.03 91 1009.0
20260509111655 51 215 1.7 7.8 0.02 0.06 0.03 91 1008.9
20260509111556 51 188 1.7 7.8 0.02 0.06 0.03 91 1008.9
20260509111456 51 246 0.9 7.8 0.02 0.06 0.03 91 1008.9
20260509111354 51 217 0.0 7.8 0.02 0.06 0.03 91 1008.9
20260509111255 51 250 0.9 7.8 0.02 0.06 0.03 91 1008.8
20260509111155 51 205 0.9 7.8 0.02 0.06 0.03 91 1008.9
20260509110955 51 190 2.6 7.8 0.01 0.05 0.02 91 1008.9
20260509110855 51 208 0.9 2.6 0.01 0.05 0.02 91 1008.9
20260509110756 51 259 0.9 2.6 0.01 0.05 0.02 91 1008.8
20260509110655 51 123 2.6 2.6 0.01 0.05 0.02 91 1008.9
20260509110556 51 201 0.9 3.5 0.01 0.05 0.02 91 1008.9
20260509110254 52 225 0.9 3.5 0.01 0.05 0.02 90 1008.8
20260509110055 52 168 0.9 3.5 0.00 0.04 0.01 90 1008.8
20260509105957 52 180 2.6 3.5 0.00 0.04 0.01 90 1008.8
20260509105656 51 227 0.9 3.5 0.00 0.04 0.01 90 1008.8
20260509105557 51 247 1.7 3.5 0.00 0.04 0.01 90 1008.8
20260509105455 52 209 1.7 3.5 0.00 0.04 0.01 90 1008.7
20260509105255 51 227 2.6 3.5 0.00 0.04 0.01 90 1008.8
20260509105156 52 150 1.7 3.5 0.00 0.04 0.01 90 1008.8
20260509105056 51 194 2.6 3.5 0.00 0.04 0.01 90 1008.8
20260509104955 51 211 0.0 3.5 0.00 0.04 0.01 90 1008.7
20260509104855 51 250 0.9 3.5 0.00 0.04 0.01 90 1008.7
20260509104755 51 192 2.6 4.3 0.00 0.04 0.01 90 1008.7
20260509104655 51 187 0.0 4.3 0.00 0.04 0.01 90 1008.7
20260509104556 51 214 0.9 4.3 0.00 0.04 0.01 90 1008.6
20260509104255 51 261 1.7 2.6 0.00 0.04 0.01 90 1008.6
20260509104156 51 206 0.9 2.6 0.00 0.04 0.01 90 1008.6
20260509104055 51 206 1.7 2.6 0.00 0.04 0.01 90 1008.6
20260509103955 51 196 1.7 4.3 0.00 0.04 0.01 90 1008.6
20260509103756 51 154 1.7 4.3 0.00 0.04 0.01 90 1008.5
20260509103656 51 232 0.0 4.3 0.01 0.04 0.01 90 1008.6
20260509103555 51 185 0.9 4.3 0.01 0.04 0.01 90 1008.6
20260509103455 51 234 1.7 4.3 0.01 0.04 0.01 90 1008.5
20260509103356 51 186 0.9 4.3 0.01 0.04 0.01 90 1008.5
20260509103255 51 204 0.9 4.3 0.01 0.04 0.01 90 1008.5
20260509103155 51 226 1.7 5.2 0.01 0.04 0.01 90 1008.6
20260509103056 51 188 1.7 4.3 0.01 0.04 0.01 90 1008.6
20260509102856 51 208 0.9 6.1 0.01 0.04 0.01 90 1008.6
20260509102754 51 268 2.6 6.1 0.01 0.04 0.01 90 1008.5
20260509102556 51 221 1.7 6.1 0.01 0.04 0.01 90 1008.6
20260509102455 51 209 3.5 6.1 0.01 0.04 0.01 90 1008.5
20260509102355 51 232 0.0 6.1 0.01 0.04 0.01 90 1008.6
20260509102255 51 176 0.9 6.1 0.01 0.04 0.01 90 1008.6
20260509102155 51 257 4.3 6.1 0.01 0.04 0.01 90 1008.6
20260509102055 51 185 3.5 4.3 0.01 0.04 0.01 90 1008.6
20260509101955 51 237 0.9 4.3 0.01 0.04 0.01 90 1008.6
20260509101856 51 267 2.6 4.3 0.01 0.04 0.01 90 1008.7
20260509101755 51 286 0.9 4.3 0.01 0.04 0.01 90 1008.7
20260509101655 51 241 0.9 4.3 0.01 0.04 0.01 90 1008.6
20260509101555 51 175 2.6 4.3 0.01 0.04 0.01 90 1008.6
20260509101355 51 210 1.7 6.1 0.01 0.04 0.01 90 1008.7
20260509101255 51 197 1.7 6.1 0.01 0.04 0.01 91 1008.6
20260509101155 51 171 1.7 6.1 0.01 0.04 0.01 91 1008.7
20260509101055 51 237 0.9 6.1 0.01 0.04 0.01 91 1008.6
20260509100956 51 223 2.6 6.1 0.01 0.04 0.01 91 1008.7
20260509100855 51 204 1.7 6.1 0.01 0.04 0.01 91 1008.7
20260509100755 51 221 1.7 6.1 0.01 0.04 0.01 91 1008.6
20260509100655 51 184 2.6 6.1 0.01 0.04 0.01 91 1008.8
20260509100555 51 187 5.2 6.1 0.01 0.04 0.01 91 1008.6
20260509100455 51 195 0.9 3.5 0.01 0.04 0.01 91 1008.6
20260509100355 51 269 1.7 3.5 0.01 0.04 0.01 91 1008.6
20260509100255 51 219 1.7 3.5 0.01 0.04 0.01 91 1008.6
20260509100155 51 205 0.9 3.5 0.01 0.04 0.01 91 1008.7
20260509100056 51 248 0.0 4.3 0.01 0.04 0.01 91 1008.7
20260509095956 51 237 0.9 4.3 0.01 0.04 0.01 91 1008.7
20260509095855 51 196 1.7 4.3 0.01 0.04 0.01 91 1008.7
20260509095755 51 188 0.9 4.3 0.01 0.04 0.01 91 1008.8
20260509095655 51 230 0.9 4.3 0.01 0.04 0.01 91 1008.8
20260509095555 51 201 0.0 4.3 0.01 0.04 0.01 91 1008.7
20260509095256 51 198 3.5 4.3 0.01 0.04 0.01 91 1008.6
20260509095055 51 185 0.9 2.6 0.01 0.04 0.01 91 1008.8
20260509094955 51 229 0.0 2.6 0.01 0.04 0.01 91 1008.8
20260509094855 51 229 0.9 2.6 0.01 0.04 0.01 91 1008.8
20260509094756 51 229 0.9 3.5 0.01 0.04 0.01 91 1008.8
20260509094655 51 216 0.9 3.5 0.01 0.04 0.01 91 1008.8
20260509094556 51 229 0.9 3.5 0.01 0.04 0.01 91 1008.8
20260509094356 51 219 0.0 3.5 0.01 0.04 0.01 91 1008.8
20260509094255 51 219 0.9 6.1 0.01 0.04 0.01 91 1008.8
20260509094155 51 219 0.9 6.1 0.01 0.04 0.01 91 1008.9
20260509094055 51 186 1.7 6.1 0.01 0.04 0.01 91 1008.9
20260509093855 51 178 0.0 6.1 0.01 0.04 0.01 91 1008.8
20260509093754 51 247 0.9 6.1 0.01 0.04 0.01 91 1008.8
20260509093456 51 227 6.1 6.1 0.00 0.03 0.00 91 1008.9
20260509093355 51 191 0.9 5.2 0.00 0.03 0.00 91 1009.0
20260509093256 50 186 1.7 5.2 0.00 0.03 0.00 91 1008.9
20260509093156 50 202 0.9 5.2 0.00 0.03 0.00 91 1008.9
20260509092855 50 235 0.9 5.2 0.00 0.03 0.00 92 1009.0
20260509092755 50 227 1.7 5.2 0.00 0.03 0.00 92 1008.9
20260509092655 50 194 0.9 5.2 0.00 0.03 0.00 92 1008.9
20260509092557 50 217 1.7 5.2 0.00 0.03 0.00 92 1009.0
20260509092454 50 196 1.7 2.6 0.00 0.03 0.00 92 1009.0
20260509092355 50 226 0.9 2.6 0.00 0.03 0.00 92 1009.0
20260509092254 50 217 0.0 2.6 0.00 0.03 0.00 92 1009.0
20260509092155 50 215 1.7 2.6 0.00 0.03 0.00 92 1009.0
20260509092055 50 219 0.0 2.6 0.00 0.03 0.00 92 1009.0
20260509091854 50 207 0.9 3.5 0.00 0.03 0.00 92 1009.0
20260509091754 50 182 0.9 3.5 0.00 0.03 0.00 92 1009.0
20260509091655 50 182 0.9 3.5 0.00 0.03 0.00 92 1009.0
20260509091554 50 182 0.9 3.5 0.00 0.03 0.00 92 1009.0
20260509091455 50 181 2.6 3.5 0.00 0.03 0.00 92 1009.0
20260509091355 50 202 0.9 4.3 0.00 0.03 0.00 92 1009.1
20260509091255 50 213 0.0 4.3 0.00 0.03 0.00 92 1009.1
20260509091156 50 244 1.7 4.3 0.00 0.03 0.00 93 1009.1
20260509091056 50 190 0.9 4.3 0.00 0.03 0.00 93 1009.1
20260509090855 50 261 0.9 4.3 0.00 0.03 0.00 93 1009.1
20260509090656 50 249 0.0 4.3 0.00 0.03 0.00 93 1009.2
20260509090555 50 259 1.7 4.3 0.00 0.03 0.00 93 1009.1
20260509090455 50 238 0.9 3.5 0.00 0.03 0.00 93 1009.1
20260509090354 50 219 0.9 2.6 0.00 0.03 0.00 93 1009.1
20260509090255 50 238 0.9 2.6 0.00 0.03 0.00 93 1009.1
20260509090155 50 188 1.7 2.6 0.00 0.03 0.00 93 1009.2
20260509090054 50 219 0.9 2.6 0.00 0.03 0.00 93 1009.1
20260509085957 50 227 0.0 2.6 0.00 0.03 0.00 93 1009.1
20260509085855 50 210 1.7 2.6 0.00 0.03 0.00 94 1009.2
20260509085655 50 223 0.0 2.6 0.00 0.03 0.00 94 1009.2
20260509085555 50 195 1.7 2.6 0.00 0.03 0.00 94 1009.2
20260509085456 50 213 0.0 2.6 0.00 0.03 0.00 94 1009.3
20260509085355 50 213 0.9 2.6 0.00 0.03 0.00 94 1009.2
20260509085255 50 250 0.9 2.6 0.00 0.03 0.00 94 1009.3
20260509085155 50 211 0.0 1.7 0.00 0.03 0.00 94 1009.2
20260509085055 50 211 0.9 1.7 0.00 0.03 0.00 94 1009.2
20260509084955 50 244 0.9 1.7 0.00 0.03 0.00 94 1009.2
20260509084855 50 275 0.9 1.7 0.00 0.03 0.00 94 1009.2
20260509084755 50 260 0.9 1.7 0.00 0.03 0.00 94 1009.2
20260509084654 50 20 0.0 1.7 0.00 0.03 0.00 94 1009.1
20260509084555 50 20 0.9 1.7 0.00 0.03 0.00 94 1009.2
20260509084455 50 20 0.0 0.9 0.00 0.03 0.00 94 1009.2
20260509084354 50 336 0.0 0.9 0.00 0.03 0.00 94 1009.2
20260509084255 50 336 0.0 0.9 0.00 0.03 0.00 94 1009.3
20260509084155 50 336 0.0 0.9 0.00 0.03 0.00 94 1009.3
20260509084055 50 336 0.0 0.9 0.00 0.03 0.00 94 1009.3
20260509083957 50 336 0.0 0.9 0.00 0.03 0.00 94 1009.3
20260509083855 50 336 0.0 0.9 0.00 0.03 0.00 94 1009.3
20260509083755 50 336 0.9 0.9 0.00 0.03 0.00 94 1009.3
20260509083655 50 338 0.0 0.9 0.00 0.03 0.00 94 1009.3
20260509083556 50 338 0.0 0.9 0.00 0.03 0.00 94 1009.3
20260509083456 50 338 0.0 0.9 0.00 0.03 0.00 94 1009.3
20260509083354 50 338 0.0 0.9 0.00 0.03 0.00 94 1009.2
20260509083254 50 338 0.0 0.9 0.00 0.03 0.00 94 1009.3
20260509083156 50 338 0.9 0.9 0.00 0.03 0.00 94 1009.3
20260509083055 50 338 0.0 0.9 0.00 0.03 0.00 94 1009.2
20260509082956 50 338 0.0 0.9 0.00 0.03 0.00 94 1009.3
20260509082855 50 338 0.0 0.9 0.00 0.03 0.00 94 1009.3
20260509082654 50 338 0.0 0.9 0.00 0.03 0.00 94 1009.2
20260509082555 50 338 0.0 0.9 0.00 0.03 0.00 94 1009.3
20260509082456 50 338 0.9 0.9 0.00 0.03 0.00 94 1009.3
20260509082355 50 338 0.9 1.7 0.00 0.03 0.00 93 1009.3
20260509082255 50 338 0.0 1.7 0.00 0.03 0.00 93 1009.3
20260509082155 50 338 0.0 1.7 0.00 0.03 0.00 94 1009.3
20260509082055 50 338 0.0 1.7 0.00 0.03 0.00 94 1009.3
20260509081956 50 338 0.0 1.7 0.00 0.03 0.00 94 1009.4
20260509081855 50 338 0.0 1.7 0.00 0.03 0.00 93 1009.3
20260509081758 50 338 0.0 1.7 0.00 0.03 0.00 93 1009.3
20260509081654 50 338 0.0 1.7 0.00 0.03 0.00 93 1009.3
20260509081555 50 338 0.9 1.7 0.00 0.03 0.00 93 1009.3
20260509081455 50 338 0.9 0.9 0.00 0.03 0.00 93 1009.2
20260509081356 50 350 0.9 0.9 0.00 0.03 0.00 93 1009.3
20260509081254 50 351 0.0 0.9 0.00 0.03 0.00 93 1009.3
20260509081155 50 351 0.9 0.9 0.00 0.03 0.00 93 1009.3
20260509080957 50 9 0.0 0.9 0.00 0.03 0.00 93 1009.4
20260509080855 50 9 0.0 0.9 0.00 0.03 0.00 93 1009.3
20260509080756 50 9 0.0 0.9 0.00 0.03 0.00 93 1009.4
20260509080655 50 9 0.9 0.9 0.00 0.03 0.00 93 1009.3
20260509080556 50 9 0.0 0.0 0.00 0.03 0.00 93 1009.3
20260509080455 50 9 0.0 0.9 0.00 0.03 0.00 93 1009.3
20260509080355 50 9 0.0 0.9 0.00 0.03 0.00 93 1009.3
20260509080255 50 9 0.0 0.9 0.00 0.03 0.00 93 1009.3
20260509080155 50 9 0.0 0.9 0.00 0.03 0.00 93 1009.3
20260509075955 50 9 0.0 0.9 0.00 0.03 0.00 93 1009.2
20260509075854 50 9 0.0 0.9 0.00 0.03 0.00 93 1009.2
20260509075755 50 9 0.0 0.9 0.00 0.03 0.00 93 1009.2
20260509075654 50 9 0.0 0.9 0.00 0.03 0.00 93 1009.2
20260509075554 50 9 0.0 0.9 0.00 0.03 0.00 93 1009.2
20260509075454 50 9 0.0 0.9 0.00 0.03 0.00 93 1009.1
20260509075354 50 9 0.0 0.9 0.00 0.03 0.00 93 1009.1
20260509075254 50 9 0.0 0.9 0.00 0.03 0.00 93 1009.2
20260509075055 50 9 0.9 0.9 0.00 0.03 0.00 93 1009.2
20260509074656 50 9 0.0 0.9 0.00 0.03 0.00 93 1009.1
20260509074554 50 9 0.0 0.9 0.00 0.03 0.00 93 1009.2
20260509074254 50 9 0.0 0.9 0.00 0.03 0.00 93 1009.2
20260509074154 50 9 0.0 0.9 0.00 0.03 0.00 92 1009.2
20260509074054 50 9 0.0 0.9 0.00 0.03 0.00 92 1009.2
20260509073954 50 9 0.0 0.9 0.00 0.03 0.00 92 1009.2
20260509073854 50 9 0.0 0.9 0.00 0.03 0.00 92 1009.2
20260509073754 50 9 0.0 0.9 0.00 0.03 0.00 92 1009.2
20260509073655 50 9 0.0 0.9 0.00 0.03 0.00 92 1009.2
20260509073554 50 9 0.0 0.9 0.00 0.03 0.00 92 1009.2
20260509073453 50 9 0.0 0.9 0.00 0.03 0.00 92 1009.2
20260509073354 50 9 0.0 0.9 0.00 0.03 0.00 92 1009.2
20260509073253 50 9 0.9 0.9 0.00 0.03 0.00 92 1009.2
20260509073155 50 9 0.0 0.9 0.00 0.03 0.00 92 1009.3
20260509073054 50 9 0.0 0.9 0.00 0.03 0.00 92 1009.3
20260509072854 50 9 0.0 0.9 0.00 0.03 0.00 92 1009.4